GFSNE_prec_cthk_000.txt.gz
RH
54 58 61 61 63 63 62 64 62 59 55 56 58 59 57 57 60 59 60 63 63 62 64 67 69 73 73 64 50 36 27 17 20 21 31 34 38 38
60 59 60 61 66 68 70 66 64 67 61 59 61 61 61 60 68 63 68 65 64 64 69 71 70 72 66 51 37 29 24 22 23 32 34 36 37 41
61 64 62 64 64 68 67 67 73 70 65 61 63 67 63 66 72 66 67 66 62 65 66 70 71 67 56 42 32 28 23 22 24 33 33 33 38 44
58 57 57 61 62 64 69 75 77 69 66 63 65 68 68 70 80 73 68 64 63 65 67 71 67 60 50 37 29 19 18 22 24 26 28 33 38 41
63 60 62 66 63 65 74 78 77 75 67 66 68 65 68 73 74 74 70 65 67 69 70 65 63 57 42 34 23 16 16 17 19 24 34 37 39 40
63 64 63 65 66 67 79 81 82 81 77 86 68 67 75 74 78 84 67 67 73 71 68 64 60 51 38 29 19 16 16 16 21 29 38 40 43 42
62 65 70 69 70 70 71 78 85 84 80 77 70 75 76 79 83 81 66 72 72 71 67 64 59 43 35 25 17 16 16 17 26 30 34 41 44 45
69 64 69 72 75 74 73 76 86 87 84 75 72 77 81 86 82 72 69 74 72 71 70 64 56 39 31 20 16 16 16 18 27 33 34 38 42 46
70 72 73 78 77 76 77 76 87 93 88 83 76 81 83 83 80 66 70 73 72 70 70 63 48 37 29 19 15 15 17 19 28 33 35 39 43 46
70 70 74 81 80 78 75 76 81 86 87 88 84 91 89 84 73 67 72 72 72 73 69 57 46 39 27 19 15 15 15 19 25 27 34 41 49 57
73 69 71 79 77 78 81 74 77 87 87 83 93 92 91 86 73 71 72 74 76 77 67 50 42 33 19 15 16 14 15 22 27 34 42 47 52 58
72 78 81 80 80 82 85 79 81 82 86 89 94 96 91 83 75 73 76 80 76 74 62 48 41 27 17 17 16 17 23 28 34 41 46 56 60 63
66 74 80 82 82 84 87 86 86 86 93 97 98 93 89 82 77 78 79 81 76 67 55 43 30 23 20 22 17 21 27 33 40 48 53 61 65 67
71 73 78 81 84 85 89 92 91 97 95 98 93 91 87 79 80 83 83 79 73 60 48 37 26 19 18 19 23 28 35 37 45 55 60 64 68 71
75 69 78 83 85 85 89 94 91 96 97 97 93 90 86 81 85 83 85 77 68 53 42 30 24 19 17 17 26 29 38 46 53 59 63 62 69 72
81 72 77 87 90 88 89 92 96 97 98 96 91 91 84 86 86 86 82 74 61 48 36 26 20 16 17 23 27 31 39 51 56 60 61 63 72 76
88 81 81 86 86 88 88 93 96 95 96 94 91 92 88 91 88 87 79 68 53 44 29 23 16 16 21 25 31 39 46 52 56 61 67 66 72 74
93 92 83 82 88 92 95 96 98 96 93 94 93 90 94 89 91 85 73 59 48 34 25 19 15 18 22 30 38 44 49 53 57 65 66 68 65 69
96 95 86 86 88 94 96 98 98 97 95 96 92 92 93 95 89 78 65 53 39 26 21 15 18 23 31 42 42 45 53 55 59 61 63 65 66 72
98 99 95 90 92 95 98 99 97 96 97 94 92 95 96 94 82 72 58 45 29 24 16 17 21 27 34 38 41 47 53 58 64 66 70 71 72 72
99 99 98 94 96 98 99 99 98 97 97 95 93 98 97 88 77 61 49 34 25 18 15 20 26 32 35 39 45 50 54 57 60 63 71 75 77 80
98 98 99 96 95 97 98 98 98 98 97 93 97 98 91 84 67 53 39 27 21 15 18 24 30 35 39 44 48 53 58 60 66 72 79 81 80 81
98 98 98 98 98 99 98 98 98 98 95 97 99 97 89 70 58 44 31 24 15 16 22 28 32 39 42 46 53 56 59 62 72 81 82 85 92 91

GFSNE_prec_cthk_003.txt.gz
RH
57 60 61 61 67 71 72 70 75 73 72 67 71 69 70 70 68 68 68 68 71 73 67 67 67 68 69 71 71 66 57 44 33 29 26 25 31 31
65 64 63 64 67 68 67 70 75 75 72 84 76 73 74 69 70 69 74 72 72 72 67 68 68 69 74 73 69 56 49 38 34 30 24 31 31 31
68 68 68 68 69 73 69 67 69 71 70 68 81 81 85 76 72 72 75 75 75 76 70 72 70 73 76 69 61 53 43 34 32 27 24 27 29 30
64 69 66 69 70 69 74 70 74 73 72 74 81 86 81 74 74 74 78 78 78 75 76 72 73 76 70 65 56 49 38 33 24 22 21 21 32 35
71 80 80 77 68 69 75 75 70 73 75 78 82 88 87 76 74 72 76 80 81 83 78 67 73 72 66 61 56 45 35 27 19 14 19 26 34 37
72 76 82 83 78 74 76 80 77 77 79 79 86 90 89 83 83 75 79 82 86 89 72 69 69 69 65 63 54 40 32 23 16 16 22 27 30 39
70 77 79 76 79 78 79 83 80 84 85 84 87 89 88 93 86 79 83 85 89 87 70 69 68 68 66 63 49 37 26 18 14 20 23 27 31 37
69 74 76 76 82 84 83 82 83 83 87 86 89 92 85 94 92 85 84 84 84 79 70 69 69 70 68 58 43 33 21 14 13 22 24 29 32 36
68 66 74 82 80 85 82 85 88 89 89 89 88 89 88 91 94 91 86 89 83 73 71 71 72 74 65 51 39 26 16 13 13 22 27 30 38 44
74 71 68 74 78 83 84 88 87 92 93 94 92 93 88 89 96 96 94 87 82 72 70 72 78 71 58 45 32 21 12 12 12 17 23 30 38 44
76 74 79 80 81 88 92 94 93 92 94 96 96 96 94 93 97 97 89 88 81 71 75 78 76 63 50 36 24 15 12 11 16 21 29 36 41 48
64 83 87 88 87 89 95 96 97 93 96 98 99 98 97 99 98 92 91 87 74 72 82 82 70 57 42 29 21 13 13 16 23 27 34 40 45 54
67 81 93 96 91 84 90 96 93 92 97 98 99 98 98 95 96 92 90 89 77 80 85 77 62 49 34 23 14 12 15 21 25 32 41 49 54 61
73 81 87 93 95 85 91 93 95 97 97 97 99 99 98 98 96 87 89 81 81 84 84 66 55 40 27 18 13 14 19 24 33 43 50 53 56 60
76 82 85 93 95 90 91 95 97 96 97 98 98 98 99 95 90 94 92 82 85 85 72 58 46 31 24 13 14 18 24 35 42 48 50 53 58 61
77 79 87 90 94 93 91 93 95 96 98 99 98 97 96 94 93 96 88 88 86 77 62 52 35 26 14 14 20 25 32 38 42 46 49 52 57 63
79 79 85 88 93 93 91 95 96 97 98 98 98 98 95 92 98 93 94 87 78 67 56 40 28 18 13 18 24 31 35 38 42 48 53 56 56 60
82 85 89 92 93 97 93 96 96 96 99 99 98 96 95 97 98 95 91 81 70 59 45 33 22 14 17 23 31 35 38 41 47 52 56 59 63 65
92 91 96 97 96 98 97 98 97 96 98 98 97 95 98 98 97 96 86 75 61 49 36 25 14 17 23 30 34 37 43 47 53 57 60 64 66 70
94 96 98 98 98 97 94 94 97 98 97 98 96 97 98 98 97 89 78 64 53 38 26 17 16 23 28 33 37 42 46 50 56 58 65 72 78 79
93 97 98 98 98 97 96 96 97 97 98 98 98 99 98 97 91 81 66 55 41 28 20 16 22 27 32 37 41 46 56 60 62 65 71 76 79 80
90 97 98 98 98 98 98 98 98 98 98 98 98 98 98 94 85 68 56 43 31 22 16 21 26 33 36 38 46 54 59 68 74 72 76 87 85 83
83 94 98 97 98 98 98 98 98 98 98 98 98 98 96 93 73 57 46 34 23 16 20 25 32 34 36 45 54 63 69 70 80 93 97 93 91 89

GFSNE_prec_cthk_006.txt.gz
RH
63 67 70 72 76 76 76 75 80 73 70 67 63 65 65 71 78 78 77 72 73 73 75 78 78 76 75 72 67 69 70 66 58 50 46 44 41 40
70 71 72 73 74 75 77 75 79 79 75 74 72 70 75 69 79 88 83 82 79 79 78 81 81 81 79 76 69 72 70 62 55 50 44 43 38 32
73 75 78 81 82 82 82 82 84 83 84 61 75 80 80 82 83 94 90 86 85 79 77 81 83 82 79 73 69 71 65 61 55 49 40 40 32 25
70 74 80 85 87 94 93 94 92 92 89 77 79 85 83 87 89 94 96 93 92 79 78 79 79 81 85 72 69 67 64 60 53 45 37 29 27 20
73 75 74 77 79 82 87 89 87 90 86 91 80 91 90 89 93 97 99 96 97 88 78 82 81 88 89 71 69 67 64 58 50 43 31 21 21 23
65 67 68 71 72 75 81 81 82 89 90 87 89 89 86 88 96 98 95 95 98 96 84 86 85 91 80 71 70 68 63 57 47 37 24 24 21 22
58 61 64 66 67 67 79 76 83 86 93 97 90 90 88 88 93 97 97 97 97 98 93 89 93 90 76 71 70 67 62 51 41 29 25 22 21 23
50 51 58 61 64 66 71 78 83 85 94 95 98 86 88 90 93 98 98 98 97 97 96 93 93 84 73 73 71 66 58 48 35 22 16 21 22 27
51 51 52 58 66 71 71 72 77 80 87 95 91 92 90 90 94 96 98 98 96 98 98 98 88 79 75 76 69 63 53 42 25 17 11 20 26 31
48 50 53 53 60 72 78 75 74 74 88 92 90 91 89 99 96 98 97 98 97 98 98 92 85 82 76 76 69 58 47 32 19 11 11 16 27 37
45 47 51 54 55 63 70 77 81 87 87 83 93 92 97 95 98 98 98 97 98 98 94 87 83 77 79 73 64 49 36 22 12 11 16 25 33 40
37 37 46 54 54 61 68 71 85 91 92 87 94 94 95 98 98 99 96 98 98 97 94 91 84 83 73 69 54 41 25 13 12 16 23 31 39 43
40 41 43 52 56 62 69 78 92 96 91 94 94 94 97 98 98 98 98 98 97 96 93 86 84 78 70 57 43 29 14 12 15 20 26 33 41 48
45 48 51 59 63 63 73 81 95 98 94 96 97 97 98 97 99 98 98 98 97 93 91 91 82 71 58 45 31 18 12 15 20 27 33 41 44 49
51 55 62 71 73 70 75 83 92 95 96 97 99 96 99 99 98 98 99 94 93 96 92 87 71 59 48 33 20 13 16 22 28 34 39 41 45 47
51 57 71 79 81 79 78 82 93 98 97 98 98 98 98 98 98 97 95 98 98 96 87 72 60 50 36 22 15 16 21 28 33 35 38 43 47 51
54 63 72 77 79 86 87 90 96 97 95 99 99 98 98 99 98 98 98 98 98 88 71 61 51 37 24 19 16 22 29 32 34 39 42 47 51 53
58 66 73 82 87 90 94 96 95 96 97 98 98 98 98 98 99 98 98 98 89 72 62 50 38 25 20 18 23 28 32 36 40 44 48 50 52 59
61 68 75 87 96 97 96 93 95 97 98 97 98 98 98 98 98 98 98 92 74 62 50 40 26 21 18 24 29 31 36 41 47 51 56 58 60 66
59 68 74 94 97 97 94 93 97 97 98 98 97 97 97 97 98 98 95 76 62 49 40 27 22 20 23 29 32 37 43 47 53 57 64 68 71 74
59 67 71 92 97 97 97 97 97 98 98 98 98 97 97 97 98 94 76 60 49 40 27 22 21 24 29 30 36 44 54 61 64 71 80 84 85 87
56 66 71 89 97 97 97 97 97 97 97 98 97 97 98 98 96 76 60 48 39 27 23 20 24 29 32 39 48 57 69 85 92 92 90 91 91 92
54 63 72 86 96 97 97 97 97 97 97 97 97 97 98 98 79 59 47 39 27 21 19 24 29 32 41 55 71 85 88 87 87 85 89 92 89 90

GFSNE_prec_cthk_009.txt.gz
RH
71 79 84 84 87 88 90 93 95 91 86 86 82 75 74 74 74 73 75 78 82 88 89 84 77 76 78 82 84 81 82 77 71 71 68 61 57 57
58 62 71 78 83 86 88 93 96 97 90 92 83 81 84 81 75 74 78 85 89 93 96 94 89 88 85 89 88 86 84 81 71 70 63 60 59 58
68 69 68 69 72 75 77 79 85 91 95 78 84 81 83 83 81 79 80 83 88 94 94 96 98 97 96 88 94 87 87 82 71 66 62 60 61 56
66 67 68 70 73 76 78 77 80 83 91 86 78 83 83 89 90 82 84 87 83 94 95 93 96 99 98 88 95 88 88 84 68 65 63 62 54 51
55 58 59 62 64 65 66 68 67 66 76 84 79 85 82 82 90 87 92 92 90 93 98 95 94 99 98 98 97 94 91 75 67 65 64 62 51 42
53 54 53 54 56 56 60 66 68 69 72 75 79 76 85 81 85 90 90 94 95 92 94 98 93 95 98 98 97 94 89 72 69 69 67 58 48 40
51 51 50 49 49 51 59 62 68 71 72 69 69 74 76 98 76 98 93 98 94 92 96 99 97 98 97 98 95 97 80 74 74 71 64 54 45 40
45 42 43 45 47 49 51 55 62 67 70 76 71 71 67 77 98 97 91 98 98 99 97 98 97 98 98 99 97 89 77 77 76 69 58 46 39 32
41 43 41 44 41 42 43 45 48 53 65 72 75 70 74 77 86 98 89 89 94 96 98 99 97 99 98 98 95 88 85 79 74 62 51 41 29 24
38 39 39 37 39 41 46 46 42 44 48 58 64 62 78 81 84 97 92 98 98 97 98 99 99 98 99 96 93 86 81 77 64 53 44 28 20 19
39 41 40 37 37 43 50 50 45 39 45 51 56 58 67 84 91 97 95 98 98 97 99 99 98 98 97 97 87 87 79 67 56 50 33 20 17 23
35 35 35 37 37 42 53 53 49 45 49 51 53 58 68 84 94 94 97 98 99 99 98 98 99 97 96 95 91 80 67 55 47 35 22 21 26 28
29 28 31 36 39 48 59 63 61 60 58 60 61 74 89 91 95 97 99 99 99 98 99 98 98 98 96 86 80 68 55 48 35 22 16 18 23 28
32 24 29 37 47 56 60 64 71 75 71 69 68 85 96 96 96 99 99 99 98 98 98 98 98 98 95 81 70 56 47 34 22 18 17 22 28 33
28 24 31 46 54 58 65 72 82 85 80 78 82 94 98 99 98 98 98 98 98 98 99 99 98 90 77 67 52 42 33 22 18 19 25 30 34 36
25 25 35 51 63 65 73 82 85 87 85 84 92 97 98 98 98 98 98 98 98 98 98 97 87 76 61 50 43 30 20 18 22 27 31 33 36 39
34 33 38 56 69 73 83 88 87 91 92 94 94 98 98 98 98 98 98 98 98 98 97 84 71 56 48 41 26 20 20 26 30 32 34 39 43 47
34 32 43 63 72 77 92 92 96 95 94 96 98 98 98 98 98 98 98 98 97 96 81 63 53 45 36 24 23 24 27 32 34 37 41 44 48 52
32 32 53 68 76 85 96 97 96 96 96 97 97 98 97 97 97 97 97 97 95 78 59 50 41 32 25 26 26 29 31 34 39 45 51 55 57 61
32 35 55 66 78 86 97 97 97 97 98 97 97 97 97 97 97 98 97 97 71 56 46 36 29 27 25 27 28 34 40 49 61 71 76 78 81 82
31 35 52 71 77 93 97 97 97 96 97 97 97 97 97 97 97 98 94 61 53 42 34 28 27 24 26 31 40 55 69 76 79 81 84 84 95 96
31 35 54 69 80 95 97 97 97 97 97 97 97 97 97 97 97 87 59 48 38 30 29 23 24 29 38 53 69 79 84 80 71 63 68 74 81 90
30 36 54 65 81 95 97 97 97 97 97 97 97 97 97 96 78 55 46 35 28 27 21 25 33 49 68 75 76 69 60 50 55 65 70 76 73 87

GFSNE_prec_cthk_012.txt.gz
RH
56 61 65 66 67 71 80 87 89 91 89 90 90 88 84 82 81 80 81 79 79 81 76 82 86 86 81 81 83 85 88 82 81 83 82 80 74 67
49 55 62 66 68 72 76 80 84 90 82 77 76 82 87 85 80 84 84 86 85 81 79 82 84 87 87 91 91 88 88 86 85 84 90 85 75 66
49 52 54 58 61 67 70 72 73 77 81 63 71 72 76 81 81 81 81 84 84 88 88 87 84 88 91 96 95 93 94 93 95 89 96 89 77 67
53 56 56 57 56 57 60 63 67 70 79 73 62 64 65 65 70 73 77 84 85 88 90 92 88 91 93 97 98 99 97 98 94 97 94 87 77 67
57 57 56 57 55 53 54 56 56 57 62 68 59 57 59 62 64 67 69 80 84 92 97 93 93 93 95 96 99 99 99 98 96 99 92 86 71 69
45 46 48 45 43 43 50 53 56 60 60 63 65 62 58 58 67 67 67 66 74 98 96 96 94 95 98 99 98 97 98 99 98 99 91 90 70 72
38 39 40 37 38 49 52 43 47 55 55 55 55 54 57 61 63 66 67 68 68 90 93 92 92 99 95 99 99 98 98 99 99 97 92 79 77 72
34 35 36 34 38 42 39 40 44 52 52 55 52 51 48 54 58 63 72 74 68 73 91 87 96 97 96 99 98 97 99 99 98 97 88 80 82 80
27 25 22 24 35 37 34 36 37 42 51 53 53 49 51 49 56 59 68 71 78 74 83 89 99 99 99 97 98 99 98 98 97 95 90 88 83 69
18 14 14 20 25 32 33 35 34 38 47 51 55 47 50 48 57 60 64 65 71 81 86 89 99 98 98 99 98 98 98 98 98 96 93 84 71 61
20 19 26 25 22 28 36 41 41 41 47 53 54 51 50 51 57 67 66 71 65 77 90 97 98 98 98 99 98 98 98 98 98 94 84 74 65 53
30 28 27 24 24 24 32 44 52 51 53 54 53 53 59 59 61 71 72 74 81 85 92 99 96 99 98 98 98 98 98 98 97 88 76 66 58 47
37 31 25 21 23 24 31 53 62 67 62 65 58 60 66 67 67 71 83 94 96 97 98 99 98 98 98 98 98 98 98 96 88 73 65 64 49 36
40 32 29 30 28 30 37 58 69 73 75 67 69 71 75 74 75 79 97 98 98 98 98 98 98 98 98 98 98 98 95 79 69 65 54 39 29 31
38 36 32 33 32 29 43 66 74 80 74 81 84 87 84 83 95 99 98 98 98 98 98 98 98 98 97 98 94 84 73 65 55 42 32 25 23 22
37 34 31 31 29 37 55 77 81 82 88 88 87 90 90 98 98 98 98 98 98 98 98 97 97 97 95 84 73 65 57 44 34 27 23 22 25 29
39 35 26 26 30 46 71 79 84 96 95 91 91 94 98 97 97 98 97 98 98 97 97 97 95 84 74 64 53 42 34 28 24 25 26 29 30 33
41 35 27 29 39 62 73 81 93 97 95 95 97 97 97 97 97 97 97 97 97 97 97 86 75 61 50 44 36 29 26 28 28 30 31 34 38 42
41 34 29 32 49 67 77 89 97 97 96 96 97 96 97 97 97 97 97 97 98 92 79 62 51 45 35 32 30 31 30 30 32 35 41 48 56 63
44 35 30 36 57 68 83 96 97 97 97 97 97 97 97 97 97 97 97 97 87 68 56 47 36 34 32 30 29 29 35 45 59 70 77 81 84 86
42 34 32 43 58 71 87 97 97 97 97 97 97 97 97 97 97 97 97 77 59 49 40 36 31 25 27 32 46 61 70 77 77 74 71 70 71 76
42 35 33 48 61 74 90 97 97 97 97 97 97 97 97 97 97 92 64 51 44 38 32 24 26 38 55 67 71 66 58 54 49 48 58 71 77 79
41 35 36 50 62 74 96 97 97 97 97 97 97 97 97 97 74 52 45 39 32 24 26 42 59 69 71 54 48 47 44 45 56 78 80 83 87 85

GFSNE_prec_cthk_015.txt.gz
RH
42 44 47 48 51 57 64 73 82 75 64 62 69 72 77 82 83 83 83 85 88 86 87 86 88 87 84 84 79 83 78 81 87 91 96 94 94 89
43 44 47 51 53 55 60 66 72 80 81 67 67 70 74 76 75 78 80 83 80 86 89 91 91 95 95 89 87 88 88 86 88 96 99 97 97 88
37 42 46 51 53 56 61 62 62 70 76 58 61 59 61 66 66 72 72 73 73 73 76 82 87 90 96 95 92 91 89 90 89 96 98 98 98 94
28 31 37 41 41 44 45 45 50 54 66 68 55 58 60 58 59 62 63 65 69 69 72 77 77 89 92 94 94 92 92 94 94 96 99 97 99 98
30 33 35 37 38 40 39 37 42 50 44 47 51 55 53 57 59 58 63 62 60 65 80 77 76 82 92 92 97 94 96 96 95 98 98 99 98 98
33 32 32 35 35 34 34 39 47 45 38 45 46 43 46 46 54 58 56 56 52 58 59 64 72 75 80 82 93 97 98 95 99 99 99 98 99 99
23 22 21 24 24 25 27 32 29 34 37 41 46 48 47 50 56 55 54 49 45 47 47 49 58 66 70 88 92 96 99 95 99 99 99 99 99 98
17 16 15 15 16 21 22 24 30 34 37 41 38 41 43 54 53 54 54 54 46 47 52 46 54 56 70 78 90 93 95 98 98 98 99 99 98 99
22 21 18 20 22 23 21 22 24 30 31 36 44 44 47 51 55 54 56 56 51 47 55 52 60 57 61 77 90 92 96 99 98 99 99 99 98 99
27 27 27 29 31 30 28 28 27 23 22 28 44 51 52 53 56 56 55 54 47 44 52 51 54 54 57 76 86 93 99 98 98 98 99 99 98 98
32 34 35 34 35 34 34 33 29 27 24 29 43 52 56 54 59 66 60 61 53 49 53 56 59 57 61 88 98 97 99 98 98 98 98 98 98 98
38 39 34 36 36 35 42 42 42 34 33 37 42 53 60 61 65 74 73 69 65 58 55 61 63 72 71 91 98 98 98 98 98 98 98 98 97 93
47 38 36 38 39 36 37 39 39 42 40 54 61 64 70 72 74 74 75 77 73 69 68 77 82 90 91 97 99 98 98 98 98 98 98 98 94 83
45 42 43 42 39 36 34 36 40 46 60 73 75 77 75 73 74 78 83 81 78 75 87 96 97 98 98 98 98 98 98 97 97 97 98 91 85 79
48 50 45 44 40 28 29 38 45 59 82 85 84 84 85 86 91 93 87 91 97 97 98 98 98 98 98 98 98 98 97 97 97 96 89 85 71 61
51 48 44 41 38 30 31 40 59 83 88 89 95 96 94 93 94 93 97 97 97 97 97 98 98 98 98 98 98 97 97 96 96 85 71 65 56 45
52 46 40 41 34 29 33 50 74 83 94 97 96 94 94 94 96 97 97 97 97 97 97 97 97 97 93 92 89 90 83 69 61 55 48 39 31 28
52 47 45 43 35 32 42 64 76 93 97 97 96 94 94 97 97 97 97 97 97 97 97 97 93 87 79 70 63 57 50 42 36 32 29 29 26 28
51 48 47 43 35 37 56 73 87 97 97 97 96 95 96 97 97 97 97 97 97 97 87 76 68 60 53 47 41 36 33 31 32 30 29 31 33 36
52 50 47 41 36 49 66 78 96 97 97 97 97 97 97 97 97 97 97 97 91 76 64 55 47 42 40 42 40 37 34 32 33 37 42 50 57 62
49 47 45 41 43 57 70 90 97 97 97 97 97 97 97 97 97 97 96 78 68 58 50 47 46 44 41 38 38 45 55 63 69 73 73 72 71 70
48 47 44 40 49 60 80 96 97 97 97 97 97 97 97 97 97 82 68 61 55 53 49 43 42 47 60 69 71 65 58 55 51 48 49 57 65 67
48 46 43 42 52 70 90 97 97 97 97 97 97 97 97 80 64 55 52 49 41 37 42 62 74 73 61 49 45 46 46 47 48 53 64 74 77 81

GFSNE_prec_cthk_018.txt.gz
RH
25 26 28 32 40 49 58 62 69 65 51 38 51 50 53 54 57 63 68 73 78 82 84 89 92 96 99 99 97 94 93 91 91 88 86 83 92 96
19 17 20 26 31 40 41 44 48 57 57 39 41 45 51 57 59 61 59 60 61 69 78 81 87 87 90 95 98 96 95 95 95 94 90 93 85 92
16 19 26 26 29 30 33 36 39 41 47 35 41 45 45 39 43 57 62 67 67 63 65 70 74 81 84 85 90 94 98 97 97 96 95 94 95 86
23 28 28 30 30 29 31 30 31 33 39 49 39 34 34 33 38 40 41 46 53 65 65 67 70 73 82 84 86 86 89 94 94 98 97 96 95 93
32 32 29 26 23 25 25 25 26 31 46 48 30 22 21 21 26 30 37 44 47 54 61 64 69 71 77 83 89 86 82 85 91 93 95 99 96 98
33 32 28 27 27 28 28 31 33 39 38 39 38 35 34 29 27 27 29 39 44 47 51 54 54 53 52 63 67 82 85 84 85 88 92 95 97 96
27 25 23 23 26 28 35 33 37 37 36 36 35 34 32 31 30 29 34 34 40 51 57 56 53 48 51 47 50 60 71 81 89 87 91 95 99 97
21 20 22 23 27 32 35 36 37 44 36 34 35 34 30 32 32 34 37 40 38 47 56 57 58 59 55 50 52 55 61 67 77 79 89 90 98 98
22 23 25 29 34 35 35 37 38 39 40 42 41 37 38 35 33 37 45 48 44 43 55 52 56 51 50 43 39 52 54 59 75 75 85 94 98 99
30 32 35 35 36 42 46 46 44 35 31 34 40 44 46 46 53 54 52 52 49 46 53 51 56 53 54 51 45 44 52 57 68 76 88 97 99 99
30 31 40 40 41 49 52 49 44 34 29 32 38 44 47 47 53 61 61 66 58 54 54 56 52 54 52 49 47 54 54 57 69 80 94 98 98 98
33 39 38 43 48 52 52 52 46 33 33 33 36 40 52 62 73 76 75 72 68 59 59 63 58 57 56 51 52 55 60 62 81 87 96 99 98 98
45 37 36 49 51 48 47 48 43 40 38 43 47 60 78 84 87 86 81 77 74 69 68 69 62 63 63 60 62 73 72 71 93 98 96 98 98 98
43 41 50 52 46 42 43 43 40 41 46 52 73 83 85 87 87 88 87 84 81 75 84 82 72 72 74 76 82 83 81 92 97 98 97 97 97 97
47 54 55 47 42 39 42 37 35 42 51 73 86 87 89 90 93 91 87 87 91 95 94 91 94 95 96 97 98 98 95 97 98 97 97 97 97 97
51 57 51 44 43 44 39 30 36 48 76 90 92 97 96 95 91 90 92 96 97 97 96 96 97 97 97 97 97 97 97 97 97 97 97 97 97 97
53 51 46 45 41 41 34 32 41 68 87 97 98 96 92 92 93 94 97 97 97 97 97 97 97 98 98 97 97 97 97 97 97 97 97 97 97 91
48 50 51 45 44 41 35 41 66 85 97 97 96 94 93 93 96 96 97 97 97 97 97 97 97 97 97 97 97 97 97 97 97 96 91 81 74 68
47 53 50 45 45 41 46 64 82 98 97 97 97 94 96 97 97 97 97 97 97 97 96 89 81 74 69 70 84 81 69 58 62 60 53 48 44 37
52 54 48 46 45 47 58 78 97 98 97 98 97 97 97 97 97 97 97 97 92 78 68 62 58 53 49 46 44 41 39 36 36 39 38 35 33 34
53 50 47 46 47 54 71 96 97 97 97 98 97 97 97 97 97 97 88 78 67 59 54 55 56 57 54 49 45 44 44 41 40 41 43 48 52 57
54 49 45 46 50 61 93 98 97 98 98 98 97 98 97 93 83 76 69 63 63 60 59 60 61 65 71 77 77 72 69 69 70 69 69 69 67 64
52 47 45 48 53 86 98 98 97 97 97 97 97 86 73 68 65 61 57 59 65 75 85 88 81 67 60 59 59 58 56 54 55 54 53 53 55 60

GFSNE_prec_cthk_021.txt.gz
RH
17 17 18 19 28 29 36 38 44 41 32 20 28 29 31 31 37 42 43 44 50 57 64 64 63 71 80 91 88 92 95 96 96 96 98 96 96 92
21 21 23 29 26 26 26 26 30 43 46 26 24 25 26 34 35 36 33 35 35 39 45 56 69 69 69 73 83 89 90 91 94 98 97 98 97 96
17 18 24 23 21 22 22 26 35 41 39 27 32 28 40 37 29 24 22 18 21 26 33 36 41 52 71 73 73 79 89 93 96 94 97 97 97 98
18 21 20 19 19 20 22 27 36 40 47 46 37 44 41 34 30 28 29 27 19 16 24 31 36 44 50 65 74 74 79 85 88 91 94 93 97 98
16 18 18 18 18 20 23 29 33 37 43 46 40 33 33 36 35 35 33 34 24 20 23 24 25 31 43 49 65 74 76 85 87 86 86 90 91 91
18 19 19 20 21 26 31 32 38 38 42 42 41 32 30 30 33 33 28 28 28 29 23 25 25 27 33 45 50 64 72 80 83 86 84 84 84 86
19 19 21 24 27 34 37 37 42 44 44 45 43 44 43 38 31 29 30 28 24 25 26 24 26 27 31 41 49 48 55 56 69 80 85 92 88 81
21 21 24 27 30 35 36 37 44 47 49 55 50 49 43 39 35 37 41 40 43 38 42 40 37 33 31 35 44 48 51 58 59 60 68 70 76 80
26 28 27 34 37 37 35 42 47 47 47 51 52 49 46 36 43 43 44 45 47 40 44 46 42 44 39 37 45 52 56 53 60 63 55 61 68 75
30 33 35 36 38 42 48 52 44 36 36 42 46 43 41 42 51 57 56 56 53 48 62 63 53 49 46 46 46 53 57 54 51 53 59 61 63 63
32 36 39 36 40 51 60 54 38 34 36 40 40 42 50 52 58 65 66 75 67 63 73 74 61 62 60 56 52 55 61 56 50 51 50 50 52 66
36 38 38 41 48 61 59 52 43 38 41 35 30 38 51 63 78 87 87 87 84 69 80 77 73 72 63 57 56 59 62 57 56 54 55 58 60 76
42 38 38 46 57 56 57 50 48 48 39 36 41 54 75 89 92 95 95 91 85 78 82 78 73 74 70 59 60 62 60 58 58 63 64 67 73 84
43 42 47 49 46 51 49 47 48 44 39 45 62 83 92 96 96 93 90 89 87 80 82 81 73 77 75 71 68 66 66 65 67 69 66 70 86 91
48 52 48 43 46 45 42 44 42 41 52 70 81 91 97 97 96 95 94 90 95 95 93 89 86 86 82 77 75 72 71 72 81 78 73 85 89 96
51 47 43 42 50 45 42 40 42 59 74 85 96 96 95 95 94 92 94 97 97 97 97 97 97 97 93 86 82 78 83 87 85 82 81 91 97 97
52 48 44 47 46 41 41 44 57 74 94 98 98 96 95 96 94 97 97 97 97 97 97 97 97 96 95 94 93 93 96 98 93 91 97 98 97 97
53 52 49 51 46 45 47 58 77 98 99 98 98 98 96 96 97 97 97 97 97 97 97 97 97 97 98 97 98 97 97 97 97 97 97 97 97 97
56 54 54 50 46 51 59 81 97 98 98 98 98 98 98 97 98 97 97 97 97 95 89 88 82 86 97 97 97 97 97 97 97 97 97 97 97 97
57 57 52 47 50 57 78 98 98 98 98 98 98 98 98 98 98 97 96 89 81 71 66 62 59 58 75 82 88 89 87 97 97 97 97 96 92 84
58 53 49 48 56 70 98 98 98 98 98 98 98 97 98 96 92 87 80 75 70 70 71 70 69 64 58 54 52 51 53 62 68 60 55 53 52 49
56 50 47 56 66 94 98 98 97 97 97 98 91 85 78 73 68 67 68 70 73 74 76 81 78 75 71 68 65 62 60 56 54 52 48 46 45 44
53 47 55 65 85 98 98 98 98 98 96 81 70 65 61 63 73 84 92 94 94 93 90 83 73 69 67 65 62 61 60 61 63 66 71 75 77 77

GFSNE_prec_cthk_024.txt.gz
RH
20 19 18 18 20 22 21 25 27 25 16 10 15 21 24 23 26 33 46 49 43 34 28 32 32 40 50 59 66 67 66 73 84 92 91 94 94 97
17 17 16 16 22 21 21 22 23 28 31 17 16 16 24 25 28 30 37 39 36 39 32 33 32 30 29 34 45 57 65 65 68 84 88 91 95 91
16 16 16 20 23 24 24 24 25 34 39 25 26 22 24 29 32 32 28 33 35 40 39 33 30 29 32 36 35 40 47 61 70 75 83 91 91 95
16 18 20 24 23 25 25 27 35 38 42 42 35 36 30 32 37 38 35 35 36 39 39 35 26 25 23 24 26 33 36 47 57 70 78 82 86 90
19 23 25 27 26 27 29 35 38 39 41 45 36 35 35 34 35 36 36 37 36 29 33 36 31 33 23 22 22 23 28 34 47 55 70 75 80 88
23 28 28 28 29 29 34 39 41 43 39 41 42 46 45 38 41 40 38 31 34 37 33 34 42 38 32 27 26 25 25 29 38 51 58 73 74 82
28 28 29 30 31 36 41 42 45 44 43 50 51 54 43 36 39 39 44 39 32 35 40 41 38 42 43 41 36 27 29 30 33 46 59 69 81 83
29 29 30 32 36 36 40 44 46 50 54 61 57 48 37 44 46 45 43 43 43 32 49 44 42 40 36 34 34 35 32 31 31 38 56 66 76 76
31 31 30 33 36 38 41 44 46 55 64 65 55 47 47 42 46 44 47 55 49 40 58 55 46 47 39 37 36 35 34 35 35 34 45 57 61 63
34 38 35 35 43 45 44 48 55 53 53 54 53 49 51 39 48 52 57 60 63 75 84 74 69 59 54 49 44 43 42 43 43 40 45 58 53 58
33 37 41 43 46 48 53 55 47 44 45 46 47 47 40 43 53 65 80 86 80 86 96 91 83 74 69 60 55 52 54 53 50 44 49 55 54 63
35 40 45 48 48 52 53 50 49 45 45 40 38 36 43 55 78 98 95 89 90 88 97 97 86 79 68 65 64 60 59 56 52 47 51 57 54 57
39 39 47 53 53 53 53 52 54 53 45 45 47 55 68 82 94 98 98 97 95 91 91 89 86 83 78 73 66 63 64 61 54 47 49 57 54 58
44 46 53 55 53 52 49 53 51 49 55 65 71 78 91 96 95 97 98 98 96 97 96 94 87 85 81 79 76 72 70 62 58 53 61 60 60 65
51 56 56 53 51 48 50 50 51 58 67 75 90 96 97 96 96 95 94 95 97 98 97 97 97 88 85 83 82 78 74 69 63 63 66 65 68 69
55 56 52 53 52 51 46 46 57 71 86 97 97 96 94 94 96 98 98 97 97 97 97 97 97 92 97 88 80 77 75 72 72 73 74 73 74 79
58 52 53 53 50 45 45 54 74 96 98 98 98 97 98 98 98 98 97 97 97 97 97 97 97 97 95 89 86 85 80 79 82 84 88 81 81 84
55 56 56 55 49 49 55 81 98 98 98 98 98 98 98 98 98 98 98 98 97 97 97 97 97 96 95 97 97 88 85 82 88 93 93 87 83 86
56 59 58 52 50 59 85 98 98 98 98 98 98 98 98 98 98 97 95 92 88 84 80 76 91 97 97 97 94 96 97 98 98 95 91 89 85 93
60 59 54 51 61 81 98 98 98 98 98 98 98 97 95 94 91 88 85 86 78 77 79 72 79 97 97 97 97 97 98 97 98 97 97 91 96 97
60 55 51 62 79 98 98 98 98 98 98 94 85 81 80 79 77 80 85 87 85 83 84 82 73 64 82 88 97 97 97 97 97 97 97 97 97 97
57 52 59 75 98 98 98 98 98 96 84 78 81 88 93 93 96 97 97 97 98 98 98 97 86 67 62 58 62 81 90 95 97 97 97 95 91 87
53 58 72 96 98 98 98 98 87 77 82 90 98 98 98 96 93 88 81 79 79 80 78 75 76 74 72 75 75 71 70 70 62 55 54 53 51 47

GFSNE_prec_cthk_027.txt.gz
RH
17 16 16 15 16 17 20 23 26 23 17 13 14 15 21 25 24 25 25 26 28 29 26 29 30 36 37 42 43 36 42 54 60 65 71 72 83 86
16 16 16 17 17 19 21 24 25 28 28 19 18 19 19 29 30 33 29 33 28 31 34 33 33 38 38 45 45 42 34 46 56 58 63 73 79 82
17 18 19 20 22 24 25 25 27 35 38 28 26 25 23 28 27 34 34 35 35 35 35 34 35 36 33 37 44 44 42 42 45 49 53 66 78 83
18 20 22 24 26 27 27 29 36 37 40 41 32 31 29 26 32 38 44 40 37 28 29 37 41 37 36 30 39 44 44 43 42 40 37 42 58 65
19 23 25 29 29 29 33 37 36 40 42 48 38 36 36 39 42 48 46 34 25 30 40 40 36 36 39 38 35 42 44 44 43 42 37 40 44 50
21 26 30 30 31 33 36 40 42 42 41 43 44 47 50 45 56 54 36 30 32 36 36 28 32 39 40 43 40 44 49 42 43 40 41 37 38 47
26 32 32 32 36 42 44 45 44 49 52 49 50 54 56 50 50 45 42 35 30 37 34 36 49 54 47 45 47 47 48 51 46 39 36 32 33 40
32 32 32 34 37 42 44 44 54 56 56 60 58 59 51 52 45 48 49 43 34 44 52 41 61 52 54 56 51 48 47 55 44 34 33 31 30 34
34 34 34 35 41 41 44 46 49 55 61 61 58 53 54 46 48 49 45 47 49 59 75 62 84 74 79 74 72 61 50 52 51 43 34 30 31 33
38 40 40 39 42 46 50 51 54 52 50 54 55 55 54 52 53 51 58 64 73 85 92 83 93 94 88 83 75 65 58 49 50 46 40 35 32 31
41 43 45 47 46 50 58 61 52 48 48 54 56 52 51 53 58 66 74 83 83 88 95 94 93 95 93 85 71 66 63 60 51 45 38 37 37 33
40 42 45 47 49 58 62 59 54 47 54 48 45 51 58 65 80 94 96 87 90 87 93 92 87 91 91 82 79 76 70 63 57 50 44 41 38 35
45 42 44 48 59 58 58 57 54 55 51 54 64 70 85 95 97 98 98 97 92 90 92 93 90 90 88 82 84 75 70 63 59 51 44 40 39 39
47 45 46 56 56 56 57 56 55 54 59 69 83 94 96 95 95 96 97 97 97 95 96 96 93 90 86 86 85 74 73 67 61 55 51 48 46 48
47 48 53 53 52 53 52 51 53 63 81 93 96 96 96 98 98 97 97 98 98 98 98 98 98 96 85 84 82 76 75 70 66 67 64 56 56 63
49 53 50 52 54 52 48 48 67 94 97 97 98 98 98 98 98 98 98 98 98 98 98 98 98 97 93 87 82 77 76 75 74 73 69 67 77 68
55 51 51 55 51 47 49 78 98 98 98 98 98 98 98 98 98 98 98 98 97 95 93 94 97 96 97 97 84 79 78 80 78 81 83 92 91 82
55 54 56 55 50 56 86 97 98 98 98 98 98 98 98 98 97 95 96 93 90 91 90 97 97 97 97 90 84 83 84 84 81 83 82 81 83 84
56 57 57 52 59 89 98 98 98 98 98 98 94 91 91 92 93 93 95 95 97 97 97 89 98 97 97 97 97 90 87 88 87 87 88 88 81 84
58 60 53 61 86 98 98 98 97 97 94 90 92 97 98 97 97 97 97 97 97 97 97 81 97 97 97 97 97 94 90 96 93 96 97 97 90 85
61 55 60 82 98 98 98 98 97 91 92 97 98 98 98 98 98 98 98 98 97 97 96 85 78 88 97 97 97 97 97 98 98 97 97 96 97 90
58 58 77 98 98 98 98 92 88 93 98 98 96 88 80 77 80 84 83 84 91 93 95 97 80 68 86 97 97 97 97 98 98 97 97 97 97 96
60 76 94 98 98 97 84 88 93 92 90 77 68 64 62 60 59 59 59 64 71 78 77 77 77 78 78 85 96 97 97 97 98 98 97 97 97 97

GFSNE_prec_cthk_030.txt.gz
RH
16 15 15 15 16 18 20 22 26 26 23 17 19 18 24 26 30 36 34 27 26 25 35 35 36 38 42 37 39 45 43 42 43 42 38 41 55 71
15 14 15 16 17 18 21 25 27 30 27 18 21 21 22 25 32 36 30 28 28 31 39 42 48 47 44 43 44 48 46 37 41 44 46 42 44 57
13 13 14 16 18 21 24 28 31 35 41 24 23 23 24 25 24 30 34 37 36 38 45 44 38 32 39 45 47 45 44 40 40 43 48 51 51 54
12 13 15 18 21 26 30 31 34 37 41 41 29 31 30 29 27 30 35 43 45 45 48 43 39 42 52 50 38 36 38 45 43 43 47 49 46 43
13 16 18 23 28 32 33 35 37 42 45 50 40 37 37 35 37 40 46 46 43 44 42 38 43 40 32 40 44 50 44 44 44 50 51 52 49 46
18 20 25 31 35 37 40 44 47 48 48 50 55 49 44 45 53 51 42 42 41 40 37 37 38 35 38 45 47 50 49 45 48 49 52 55 54 44
21 25 31 37 38 44 47 49 49 48 55 57 55 53 59 51 50 45 47 39 35 43 38 32 39 41 41 47 50 51 49 46 46 49 52 59 67 50
26 32 36 37 39 45 48 48 52 58 56 62 63 59 49 49 51 48 48 50 42 53 54 55 68 63 64 66 70 72 72 65 65 59 60 58 64 57
34 36 37 39 41 42 44 49 51 55 64 65 60 56 54 54 54 56 64 65 67 73 81 68 76 75 85 86 90 95 89 81 72 61 55 54 59 51
39 42 42 42 43 48 49 52 55 57 54 59 58 57 57 59 65 69 71 75 81 86 95 86 90 80 86 88 94 97 97 86 74 61 49 46 53 50
42 45 49 47 48 50 57 58 58 53 51 53 57 54 60 70 86 92 91 91 86 90 92 91 86 84 89 86 90 95 89 86 77 67 55 47 50 47
41 44 44 48 48 57 62 61 58 52 55 53 52 67 92 95 100 99 98 95 93 91 90 92 90 94 88 90 91 87 82 78 73 63 55 49 49 46
47 40 39 48 57 60 59 61 58 57 57 69 91 94 96 98 99 99 97 97 95 94 91 93 96 97 92 89 84 84 85 76 70 63 56 49 47 43
46 40 48 56 57 58 60 57 56 65 87 96 95 97 98 97 97 98 98 98 99 98 97 98 97 99 94 87 86 81 82 77 74 66 59 50 43 43
44 53 58 55 55 55 52 55 76 96 97 96 97 98 99 98 98 97 97 98 97 98 98 98 98 98 96 85 85 83 80 78 76 72 64 58 47 41
52 57 53 53 54 53 52 83 98 98 98 97 98 98 98 97 98 98 98 97 97 97 98 98 97 98 93 85 84 84 80 80 75 72 74 63 57 51
58 53 51 53 49 54 91 97 98 98 98 98 98 97 97 98 98 98 98 98 98 97 97 96 97 96 92 88 84 83 82 80 74 75 78 70 63 60
56 55 57 53 60 95 98 97 98 98 98 97 98 98 98 97 97 97 98 97 97 98 98 97 96 90 86 85 84 82 82 83 82 94 91 93 77 76
57 60 57 65 95 98 98 98 98 98 97 98 98 98 98 98 98 97 97 98 98 98 95 97 97 95 86 86 82 84 88 85 82 90 95 96 97 97
60 58 67 91 98 99 98 98 95 96 98 98 97 93 89 86 89 94 92 97 97 97 93 81 96 97 94 90 85 84 87 86 89 94 93 94 95 94
58 67 88 98 98 99 96 92 97 96 93 86 73 66 63 62 63 67 77 85 91 90 97 80 90 97 98 94 89 86 85 88 87 88 89 89 89 91
67 86 95 98 99 92 91 95 91 87 77 71 70 70 65 63 62 62 65 68 78 83 86 89 84 97 98 97 97 96 92 93 94 95 98 96 91 90
83 92 97 97 90 91 88 86 83 77 73 74 74 68 68 67 67 68 69 69 69 70 79 80 82 93 97 97 97 97 97 97 98 98 98 98 97 97

GFSNE_prec_cthk_033.txt.gz
RH
15 14 12 10 10 11 13 17 24 24 19 17 20 20 24 25 25 28 27 22 24 28 30 34 36 37 44 45 49 50 49 49 49 49 47 46 44 38
12 11 10 9 10 13 17 20 23 29 29 20 19 22 25 29 30 33 33 29 26 30 38 41 45 49 47 52 51 43 43 46 46 46 46 50 49 42
11 11 11 12 14 17 20 24 30 33 34 20 23 24 26 26 29 39 43 38 37 40 46 53 51 42 49 46 46 48 50 50 52 51 50 50 50 50
13 14 15 14 18 21 25 30 33 35 44 40 27 30 29 36 39 34 41 51 47 47 49 48 44 45 43 45 47 48 43 42 40 39 47 45 50 52
17 17 17 19 22 26 31 35 39 45 47 48 39 34 41 44 41 45 47 46 45 44 45 41 45 43 44 46 45 44 46 49 52 51 51 52 50 49
18 19 21 24 28 36 37 43 47 45 43 46 53 51 45 47 52 48 39 41 44 42 39 42 42 41 40 44 42 41 42 41 41 43 45 47 44 42
22 24 26 31 36 39 46 44 46 47 52 56 53 53 57 49 48 44 45 44 50 57 55 60 63 61 60 60 59 57 54 53 52 52 48 48 46 44
28 29 31 34 35 39 42 48 50 57 55 58 60 58 50 51 49 49 55 61 66 77 80 75 84 78 81 82 77 73 75 76 75 67 62 58 51 51
32 33 34 35 39 40 40 47 48 54 62 65 60 56 54 50 59 69 80 86 88 86 94 84 90 85 82 87 86 82 82 83 85 85 85 65 58 56
35 35 36 38 41 46 48 48 57 58 56 59 58 56 63 83 93 94 92 91 90 88 86 79 86 82 80 81 83 85 85 91 93 98 96 87 73 54
32 35 41 40 42 49 58 59 54 54 51 52 61 88 97 97 98 94 92 93 90 90 88 90 90 90 89 88 89 86 91 96 97 95 92 88 82 63
32 34 38 44 52 59 61 58 56 49 57 80 93 93 95 97 98 97 96 95 95 91 90 96 95 95 92 91 88 87 89 86 86 84 85 78 72 57
38 38 40 52 60 57 57 57 55 68 91 95 95 96 96 98 98 98 99 98 95 94 95 98 97 97 98 94 86 83 84 83 81 78 73 70 58 50
45 45 53 58 54 53 53 53 77 97 96 96 97 98 97 97 97 98 98 99 98 98 97 98 98 98 97 92 84 82 79 81 75 74 73 64 52 42
50 56 55 53 51 48 52 88 97 96 96 96 98 98 98 98 97 96 97 98 97 97 98 98 98 98 95 87 83 83 84 92 89 78 62 55 48 42
51 51 52 53 51 56 90 96 97 97 96 97 98 98 98 97 97 98 97 96 96 95 97 98 98 95 92 86 87 84 82 90 97 81 71 55 44 39
53 53 52 50 60 92 95 98 98 98 98 98 97 97 97 97 98 98 98 97 98 97 95 96 93 88 87 86 86 86 93 92 94 96 74 64 54 46
54 54 54 69 94 97 98 97 96 98 98 98 97 91 86 84 83 89 93 97 97 97 93 94 87 84 83 87 86 94 98 91 92 81 88 72 62 59
55 58 71 92 97 97 98 95 97 98 98 92 80 72 68 64 64 70 78 86 90 97 88 96 97 88 85 87 83 90 99 98 98 86 88 89 87 75
58 70 90 97 98 97 92 97 95 91 81 72 73 72 70 66 60 62 65 78 85 90 86 97 97 95 88 87 83 81 93 98 97 93 93 98 93 91
67 86 95 98 95 90 94 90 86 80 75 77 78 71 70 67 64 66 68 69 79 85 81 96 97 97 92 88 88 85 86 94 98 97 98 97 95 97
83 91 95 92 87 88 87 83 81 78 78 80 78 72 71 69 69 70 68 67 68 76 85 94 98 98 98 90 89 90 90 90 96 97 97 97 97 97
88 89 87 83 85 83 82 81 79 79 83 83 80 75 74 73 72 74 71 68 67 69 78 81 98 98 98 97 91 91 94 98 98 97 96 97 97 98

GFSNE_prec_cthk_036.txt.gz
RH
15 12 11 11 10 10 11 14 20 21 17 16 19 20 24 26 27 28 29 29 34 36 35 36 36 39 39 39 45 49 50 50 51 51 49 47 47 46
12 12 13 13 13 12 14 16 20 24 26 18 19 22 29 34 33 35 39 38 32 31 39 44 44 44 50 51 52 52 50 51 50 50 48 50 50 49
14 15 16 16 15 15 16 19 22 28 33 21 22 26 27 27 36 46 47 41 38 38 43 43 45 45 44 45 50 52 48 48 49 49 50 51 50 54
16 17 17 17 18 19 21 24 27 31 38 37 26 26 28 32 37 37 48 50 49 37 39 45 46 46 45 46 46 47 48 48 51 48 51 51 52 51
18 19 20 22 23 23 27 32 34 38 42 43 34 31 35 42 37 44 45 42 42 41 42 44 44 46 47 48 47 46 47 48 53 53 51 49 52 54
20 22 24 26 27 32 35 38 44 42 43 45 44 43 41 44 54 52 40 42 43 41 44 50 52 59 61 63 61 59 56 53 48 44 42 40 39 45
22 24 27 28 32 35 44 44 44 45 47 48 44 55 58 51 48 44 47 52 61 76 78 76 79 78 76 73 68 65 64 63 63 55 55 51 44 42
25 26 26 27 30 34 36 40 46 52 49 60 60 55 49 46 49 68 83 86 82 84 85 81 86 79 77 79 80 82 78 74 74 73 68 68 71 62
26 27 27 31 31 30 34 44 45 59 62 57 54 50 53 78 90 90 91 90 88 87 89 80 82 79 81 82 85 83 81 79 83 88 84 78 78 79
27 29 33 31 33 40 48 50 56 45 47 50 56 78 94 95 96 94 91 92 92 91 91 86 89 88 88 90 87 88 89 89 92 92 90 90 90 89
28 34 36 36 40 52 56 53 47 43 44 66 93 97 97 98 97 93 93 94 89 89 91 94 89 90 91 91 90 92 92 90 88 88 92 97 98 98
31 31 34 42 51 55 55 51 47 49 83 91 90 91 94 95 98 99 96 94 92 85 90 94 94 97 90 93 94 95 88 81 82 85 87 88 87 90
32 32 36 47 55 53 52 50 64 91 91 90 89 92 94 96 97 98 99 96 92 91 94 96 96 97 98 93 88 80 78 82 80 81 86 85 86 86
35 36 45 51 53 50 50 77 94 95 92 91 93 95 95 96 97 98 98 98 97 97 97 99 96 96 86 82 78 79 93 96 90 86 77 81 80 74
37 44 48 49 47 51 84 94 94 93 93 93 95 96 96 92 92 93 95 97 97 97 97 96 96 92 84 86 80 88 94 92 92 84 76 71 72 65
41 43 46 47 56 85 89 91 92 95 95 95 96 93 86 81 78 79 82 88 94 94 95 90 89 85 85 89 88 92 98 94 84 87 72 59 56 50
45 44 46 57 83 90 91 91 92 95 96 95 86 75 70 68 63 64 70 80 92 96 94 95 85 83 93 97 97 96 92 90 82 85 69 54 47 51
44 48 59 80 90 92 91 90 94 94 90 78 72 73 67 67 64 63 66 72 85 96 95 97 87 83 91 95 96 97 87 83 76 77 61 56 53 53
48 58 77 89 93 90 89 93 89 84 77 75 79 74 69 67 66 65 66 69 74 95 95 97 96 86 85 95 96 90 96 98 98 90 65 58 57 60
55 75 87 93 88 86 87 84 81 78 78 81 82 74 73 70 69 69 66 67 69 89 95 97 97 92 87 94 95 94 97 98 97 90 74 67 60 64
72 84 87 83 82 85 82 81 80 79 82 84 83 80 76 75 73 73 69 68 70 75 94 97 97 97 90 89 97 97 97 95 98 97 98 90 74 68
81 78 78 81 82 81 81 81 82 85 87 87 85 82 81 78 76 76 76 72 69 71 82 98 97 97 97 89 91 95 98 98 96 96 97 97 93 76
74 75 78 81 80 80 82 84 88 90 91 89 84 81 81 82 84 84 84 83 83 76 72 95 97 98 97 95 96 94 98 97 97 95 92 98 98 98

GFSNE_prec_cthk_039.txt.gz
RH
20 17 15 15 15 15 15 16 19 21 18 17 19 20 23 24 25 25 28 28 33 35 36 36 38 40 41 41 41 41 42 46 47 51 51 52 50 51
17 15 15 17 17 17 18 19 21 25 27 17 17 21 28 30 30 35 33 36 33 36 41 44 43 42 41 42 42 42 47 51 52 53 55 55 53 55
15 17 18 19 19 20 21 21 23 27 33 21 19 19 22 27 32 38 43 44 40 38 42 45 45 45 45 46 47 45 45 49 48 53 54 53 55 60
18 19 20 21 22 22 23 25 26 28 35 34 25 21 25 28 32 42 48 51 50 38 40 45 49 50 49 48 49 49 47 46 46 47 47 47 49 50
20 21 22 23 23 23 25 27 32 33 33 36 32 34 35 44 44 47 48 44 41 40 47 52 55 56 56 54 52 51 48 49 53 55 55 55 55 55
22 22 23 23 23 26 31 32 32 31 33 39 43 45 49 49 49 44 39 45 62 78 82 79 82 81 79 78 76 73 69 65 64 63 63 61 58 53
22 21 20 21 25 31 32 31 35 40 44 47 52 50 48 44 43 63 80 82 83 86 83 81 84 83 83 80 76 75 77 78 76 71 68 67 64 62
20 20 20 22 25 29 31 35 45 51 54 55 52 48 44 67 85 89 90 89 83 93 91 84 90 86 86 85 82 83 85 84 82 83 80 73 72 70
21 22 24 26 26 27 31 40 49 54 55 51 48 57 84 91 92 89 90 92 92 92 89 83 88 85 88 88 91 92 93 90 88 86 77 77 80 81
23 26 29 26 29 35 44 49 45 43 44 51 78 90 93 94 96 94 91 91 91 91 90 84 88 87 89 90 90 90 88 92 92 91 91 87 83 85
26 31 30 32 35 45 50 49 44 42 65 89 93 94 93 96 96 92 92 92 87 88 89 93 89 88 91 84 88 91 95 95 94 92 85 84 87 89
29 28 30 35 39 46 52 48 54 78 86 89 88 89 92 94 96 98 96 92 91 82 90 92 89 86 80 81 79 81 78 77 80 81 77 77 84 87
27 28 30 37 42 46 49 64 84 87 88 88 87 88 92 93 90 87 87 89 89 88 93 95 84 86 84 76 79 83 90 94 95 95 91 87 86 83
31 32 36 42 44 45 62 85 88 89 87 88 89 90 87 82 80 78 74 76 88 93 94 95 84 81 82 86 87 90 97 97 98 92 92 86 83 80
35 39 40 41 43 58 82 88 89 86 88 91 91 83 72 66 61 61 60 65 76 90 96 93 83 91 93 96 97 95 94 95 97 91 82 80 76 78
38 37 39 43 58 83 86 87 86 90 91 88 78 71 72 63 62 61 59 61 63 87 93 91 83 93 96 98 96 93 88 89 86 73 68 64 66 69
39 37 41 56 81 87 87 85 90 89 87 79 73 75 69 65 62 62 63 63 64 90 92 93 84 93 95 97 94 93 92 83 77 71 63 51 52 52
38 42 56 79 87 86 83 87 85 81 77 75 79 78 70 68 66 65 65 63 64 84 95 97 84 90 91 93 96 97 97 80 77 75 60 53 54 53
42 57 76 83 81 79 83 80 77 77 78 79 81 80 77 72 69 67 66 64 63 74 96 98 89 93 93 94 96 98 91 79 80 76 78 70 61 53
56 74 76 77 79 81 80 79 77 80 82 83 85 82 79 76 73 72 70 67 63 68 93 97 94 89 94 95 97 97 95 80 76 78 81 75 70 61
69 73 75 76 79 79 79 80 83 85 87 88 88 83 80 79 80 81 80 78 72 68 84 96 98 93 94 96 97 97 98 97 78 79 82 73 72 68
70 70 71 76 76 77 80 86 88 91 94 94 93 91 84 82 80 80 82 80 80 74 72 97 98 97 92 93 97 98 98 98 97 85 80 76 75 72
67 67 71 74 73 77 85 87 90 90 93 97 96 95 84 80 81 84 85 78 78 81 72 89 98 98 96 93 98 97 98 97 97 98 85 75 76 78

GFSNE_prec_cthk_042.txt.gz
RH
27 26 24 22 21 21 21 22 24 22 18 18 18 16 20 22 21 24 24 23 30 32 32 38 39 40 41 42 42 42 42 41 41 47 51 53 52 50
27 24 21 21 21 22 23 24 24 24 24 15 14 16 21 22 23 28 30 34 32 33 39 44 44 44 43 43 43 42 43 44 43 46 51 48 52 51
25 22 21 21 22 22 23 23 22 24 27 16 16 14 17 22 26 36 38 37 35 35 43 48 47 48 48 47 47 47 47 49 56 55 54 54 53 53
22 22 21 22 22 22 21 20 21 24 31 29 20 19 24 27 34 39 39 38 34 42 58 63 68 69 69 68 67 63 57 52 50 50 51 55 56 55
23 22 21 22 21 19 21 22 24 29 31 33 31 35 34 40 40 39 36 55 73 75 76 79 84 84 83 84 82 80 78 76 72 66 58 52 55 55
22 21 21 21 19 22 24 28 31 29 29 38 44 47 44 37 39 55 71 78 81 82 82 87 88 89 87 85 82 83 81 79 76 77 75 70 64 60
22 22 21 20 21 25 30 30 31 32 41 46 49 44 40 50 72 78 82 80 84 87 80 88 85 83 82 82 85 86 84 83 84 77 75 76 77 73
21 21 20 20 20 24 26 33 38 46 46 46 45 51 67 76 79 85 86 86 79 88 83 82 83 81 85 85 83 85 89 91 90 90 91 87 84 82
21 20 20 22 22 23 27 34 41 45 47 48 62 78 80 83 84 83 86 88 89 88 82 79 83 85 84 81 80 82 84 90 90 90 89 93 88 86
21 21 23 22 24 32 38 42 37 39 48 73 82 85 86 87 88 87 84 84 81 77 82 81 84 80 79 80 79 76 76 80 90 94 94 94 93 91
21 24 27 30 32 38 43 39 38 48 75 81 87 89 87 88 91 87 82 78 73 68 72 82 84 69 75 72 74 76 80 85 83 81 77 79 79 78
24 25 28 34 37 39 41 44 51 75 79 81 81 84 87 87 85 81 75 66 63 59 71 83 76 73 72 83 87 91 91 92 92 93 91 91 93 92
26 28 29 34 38 41 45 56 80 82 81 80 82 83 83 76 69 65 66 67 61 63 79 89 75 82 89 79 85 89 94 95 94 95 97 95 90 90
31 29 34 38 37 41 55 81 84 82 80 83 83 81 68 65 62 60 62 65 69 67 77 95 80 84 88 87 87 89 96 92 90 89 81 77 80 78
31 35 34 35 38 53 80 84 82 81 82 78 74 67 69 67 62 62 62 63 65 67 81 96 85 88 92 92 94 96 92 79 74 71 63 62 67 73
33 32 32 38 57 78 84 78 78 79 77 72 69 72 74 72 66 65 61 58 56 58 82 96 88 88 93 97 97 96 87 71 66 68 62 54 61 67
33 31 36 58 75 78 74 78 77 76 75 74 76 77 80 77 72 66 66 62 59 57 79 93 89 88 91 93 95 92 75 77 78 77 69 51 54 53
29 35 58 69 70 70 73 74 75 75 78 81 82 85 82 76 73 72 71 67 63 60 76 95 91 85 88 91 94 87 79 80 80 78 76 66 57 49
32 53 65 67 68 73 73 74 75 81 85 86 87 88 85 77 75 76 77 76 70 64 73 96 95 92 92 94 95 88 78 83 80 74 75 63 57 54
45 60 65 66 72 72 72 76 81 84 88 89 93 93 90 80 75 75 75 77 76 70 68 95 97 91 94 93 92 95 85 82 88 81 74 66 68 70
54 62 63 68 71 72 76 81 81 82 84 87 89 94 93 84 78 77 77 79 75 76 70 93 98 93 98 96 96 95 96 84 87 89 88 79 68 65
58 60 63 70 72 76 78 79 82 84 88 89 91 94 92 86 83 82 82 79 76 78 74 91 98 98 97 97 97 96 96 90 89 86 80 75 73 72
58 60 68 71 73 73 76 79 85 90 92 92 94 94 94 94 91 87 84 81 79 79 77 80 97 96 94 97 97 97 96 97 92 83 82 80 74 73

GFSNE_prec_cthk_045.txt.gz
RH
32 30 28 28 26 25 25 25 26 23 20 18 18 18 20 20 19 23 24 25 26 29 33 37 40 37 39 42 43 43 43 50 48 49 51 53 49 45
30 30 29 26 26 25 24 23 22 23 21 16 16 19 22 22 26 30 29 27 25 30 34 36 41 47 48 49 50 48 47 46 46 49 50 52 52 51
31 29 27 27 25 22 20 19 18 21 23 16 17 15 20 26 28 35 37 35 31 34 46 57 62 66 69 71 73 74 74 68 58 55 56 56 56 55
30 28 27 24 21 20 18 18 21 24 27 22 17 18 25 27 35 33 30 38 54 62 67 71 72 75 75 76 77 78 79 80 78 77 74 67 60 54
29 28 25 22 21 19 20 23 24 26 29 31 26 28 31 35 33 40 58 62 67 72 72 73 78 77 80 79 78 77 78 79 82 83 82 79 77 76
28 25 23 22 20 21 26 30 30 29 30 34 41 40 37 36 54 63 65 69 73 75 73 77 79 77 77 76 77 77 77 77 82 86 85 84 84 81
25 23 22 20 22 25 29 30 31 31 33 43 45 38 43 63 68 71 72 73 75 77 70 74 70 69 71 73 72 71 74 74 77 80 85 87 87 86
25 22 20 21 20 22 23 31 34 39 45 43 41 53 68 72 74 76 77 75 69 76 69 69 65 64 70 74 68 68 66 69 69 72 81 89 91 89
21 20 22 21 20 21 23 31 35 39 42 42 57 73 75 78 80 78 78 76 72 67 65 63 59 64 76 67 65 70 75 76 76 77 73 82 90 90
20 21 20 21 23 30 32 36 33 37 42 66 78 78 80 83 83 80 75 69 57 53 65 52 56 71 73 68 75 77 83 87 88 87 86 85 81 83
20 20 22 25 28 33 41 37 38 42 71 79 79 81 82 82 83 77 69 62 50 49 54 53 60 74 67 72 78 79 87 87 88 86 86 92 94 91
21 23 24 27 33 36 39 42 46 72 80 80 80 82 83 81 78 73 69 61 58 49 55 55 68 78 64 74 79 82 90 96 97 86 84 81 82 85
23 23 24 28 36 38 42 52 77 82 79 79 81 78 74 69 67 71 68 67 62 61 59 61 74 82 78 72 77 85 85 80 79 72 75 76 74 76
27 25 27 35 33 38 55 76 80 74 73 72 69 67 65 68 71 74 70 68 69 64 59 66 81 90 80 80 83 80 83 78 70 66 62 61 62 65
27 26 28 28 32 56 70 69 66 69 69 69 68 69 72 72 73 71 70 66 65 65 62 68 85 92 86 89 87 83 82 77 76 69 72 68 55 60
27 26 25 32 54 64 65 65 70 70 71 72 74 76 76 77 75 69 68 66 63 60 62 68 87 93 89 96 88 88 86 83 74 76 70 68 59 58
31 25 29 49 59 63 65 69 69 71 76 81 83 83 84 82 79 71 72 72 70 66 58 68 91 93 93 93 90 88 88 87 74 75 69 67 60 56
26 27 43 54 59 62 65 66 70 76 78 80 83 86 88 87 84 74 73 72 71 70 66 67 93 89 88 89 94 82 92 90 77 79 82 70 57 56
26 38 50 55 59 64 66 71 74 77 80 81 82 83 88 92 88 78 76 75 74 71 72 71 96 95 93 91 93 91 85 92 84 83 89 72 69 56
34 47 54 58 64 67 70 71 75 80 84 86 88 91 92 92 89 86 82 79 75 73 73 72 97 97 96 94 94 97 84 92 89 88 80 68 68 62
46 53 57 64 66 68 70 74 81 84 86 88 91 93 94 94 93 91 86 83 78 74 75 73 96 97 97 95 96 96 88 89 86 84 78 76 70 68
51 55 62 66 66 68 72 79 84 86 88 90 91 92 92 91 90 89 86 83 78 76 77 73 95 94 94 95 95 95 91 90 85 86 79 79 75 74
53 60 66 64 65 70 76 80 83 85 88 92 94 95 94 93 93 91 88 84 77 74 76 73 93 93 92 93 93 94 93 90 82 81 76 76 73 73

GFSNE_prec_cthk_048.txt.gz
RH
37 35 34 30 28 30 30 30 28 25 23 23 22 22 23 24 24 25 27 27 26 29 30 31 32 33 34 35 38 41 43 44 43 43 43 43 50 47
39 38 33 29 29 30 31 30 28 25 22 19 21 24 25 26 27 29 28 28 29 32 37 42 48 54 58 61 63 62 62 62 62 65 64 65 60 52
37 33 28 29 29 30 30 28 25 24 22 17 20 23 27 29 33 36 32 32 33 41 51 58 62 66 66 67 68 68 69 70 70 72 74 74 77 74
32 29 30 30 29 30 28 26 24 26 29 24 21 25 26 30 33 37 33 41 54 61 63 67 68 67 71 71 72 72 71 70 70 74 74 75 77 83
32 31 30 30 30 28 26 25 31 30 29 30 26 26 28 33 36 33 49 63 66 68 69 69 67 68 68 66 65 68 69 70 70 72 74 75 78 81
31 30 30 29 29 26 25 31 29 30 31 32 33 31 37 32 36 55 62 69 70 73 69 68 66 65 64 58 58 62 66 63 63 66 67 69 71 74
32 32 31 29 21 25 27 31 30 30 31 38 42 41 33 42 59 65 68 71 75 73 66 65 62 57 56 56 58 67 66 58 64 69 69 66 65 66
33 31 27 23 23 25 31 31 31 33 37 43 40 40 53 67 69 71 73 72 68 70 66 50 55 47 51 55 62 73 61 67 70 74 78 78 75 75
31 25 23 23 28 30 31 30 31 34 39 42 45 64 72 74 74 74 76 73 69 61 62 42 48 44 45 53 67 72 67 71 74 82 86 85 86 88
25 24 23 28 30 31 31 31 34 36 40 54 72 76 77 79 81 78 73 63 56 54 59 49 46 43 49 64 71 70 70 78 84 84 81 80 79 82
24 24 30 31 31 31 32 33 35 44 68 78 78 79 79 78 77 70 64 62 57 53 54 54 51 45 54 68 74 72 79 83 76 73 75 76 72 72
23 25 29 31 31 33 35 36 46 72 72 70 73 72 72 72 71 70 70 69 67 55 56 54 51 55 53 75 77 73 79 83 75 74 74 75 77 68
27 29 30 31 32 33 34 47 68 66 63 66 66 67 67 69 73 76 77 77 71 65 61 60 52 55 70 78 74 75 83 75 76 74 76 76 79 78
30 31 29 32 27 28 43 63 62 61 64 64 66 68 73 76 77 79 79 78 74 68 64 67 58 61 73 85 75 78 82 78 77 72 73 73 72 72
31 30 29 26 22 38 57 59 59 64 65 66 69 74 78 80 80 79 83 78 73 73 71 70 65 67 87 86 85 82 77 80 78 75 80 69 64 65
30 26 25 24 41 55 58 61 65 66 67 71 73 74 76 80 83 85 85 77 70 71 73 74 69 73 92 91 91 84 84 89 78 83 88 75 72 64
26 26 25 39 53 56 61 64 65 68 73 77 78 78 80 80 85 88 89 81 74 70 69 73 72 79 95 93 88 90 87 94 84 87 84 70 72 61
24 26 38 51 55 61 62 64 68 73 80 83 85 86 87 87 89 90 90 85 77 73 71 70 69 81 90 88 92 93 91 94 88 83 80 70 66 61
24 36 49 55 60 62 65 68 72 78 83 85 86 87 88 91 90 90 88 85 80 74 72 72 72 92 93 92 88 95 88 94 92 85 80 76 75 69
29 46 55 60 63 64 68 72 76 80 83 84 86 89 91 90 89 89 87 83 81 77 73 74 74 97 96 95 93 92 91 91 88 85 85 84 80 79
41 51 57 63 64 66 71 76 80 82 83 86 90 92 94 93 92 91 88 85 81 76 73 74 72 96 94 94 95 91 90 91 85 85 85 86 84 75
47 53 61 64 66 69 73 78 83 87 90 92 94 95 95 95 94 91 88 86 82 77 72 73 73 92 90 92 93 91 89 90 82 81 84 84 80 72
50 58 64 65 67 71 75 80 86 90 96 98 97 98 98 97 97 94 90 87 86 80 72 71 78 88 86 87 90 89 92 90 84 79 81 81 77 73

GFSNE_prec_cthk_051.txt.gz
RH
53 46 42 38 35 34 31 31 32 30 29 26 25 23 21 21 20 20 20 23 26 28 28 29 31 33 34 39 46 50 52 53 53 56 55 53 51 48
50 44 39 36 33 30 31 32 32 30 26 25 24 24 25 22 21 27 26 27 24 27 32 36 40 45 52 56 59 61 62 62 62 64 67 67 66 66
47 42 38 33 31 31 32 31 29 27 25 22 24 24 22 26 27 28 30 26 27 30 39 47 56 59 63 63 63 65 65 65 67 67 66 67 69 69
44 39 33 33 33 33 31 28 27 25 26 23 25 25 28 28 32 36 34 30 35 43 56 62 65 65 65 64 65 65 64 63 60 64 67 67 68 69
39 34 34 34 33 30 29 27 25 26 26 27 26 27 28 34 38 35 33 43 51 58 64 65 66 67 62 64 62 62 61 59 59 61 64 57 56 57
36 37 35 33 30 29 26 26 25 26 29 29 27 27 36 36 35 42 52 61 62 66 66 66 64 62 60 56 54 52 52 56 60 65 63 60 63 62
36 35 32 31 29 27 27 27 30 30 29 30 34 39 32 35 50 61 65 66 67 71 65 63 60 52 49 51 50 51 49 52 59 71 67 67 68 70
32 31 31 29 25 26 31 30 30 34 35 38 41 37 45 61 65 69 68 69 65 71 67 54 53 45 46 44 49 53 53 56 63 71 67 68 71 75
32 32 29 25 25 27 28 30 30 32 35 42 43 58 65 64 63 61 62 62 57 53 58 48 48 43 44 40 49 55 57 61 70 70 68 72 66 66
31 29 26 24 25 29 30 29 29 31 34 44 65 66 60 63 65 64 60 54 52 57 64 58 53 45 43 42 50 57 62 69 75 73 75 71 71 70
28 24 23 26 29 31 32 31 30 26 41 67 60 59 65 66 66 64 60 61 56 59 67 63 56 49 43 39 55 62 67 75 78 77 77 74 73 70
24 22 23 29 30 31 34 32 29 41 59 55 56 59 61 62 66 71 72 69 67 61 71 63 60 61 45 41 62 70 73 82 80 79 80 77 71 73
22 22 23 30 31 32 32 29 44 59 54 56 57 58 61 66 72 75 78 79 76 73 75 69 65 67 66 48 62 74 82 85 83 82 80 76 80 84
22 23 24 30 31 27 27 45 55 56 57 57 59 63 67 69 72 74 76 79 85 81 75 71 68 69 67 58 70 80 84 90 86 84 77 77 86 83
22 23 23 23 23 26 46 54 56 57 58 62 67 72 76 77 77 76 78 80 85 86 80 73 73 72 72 68 85 86 86 90 85 90 83 85 86 72
22 22 22 23 25 45 52 55 56 61 65 67 71 75 79 81 82 83 83 84 84 84 85 76 76 75 72 77 94 89 91 86 85 93 85 84 77 72
23 19 20 23 43 51 55 56 60 64 69 73 75 76 79 81 85 86 87 86 86 82 77 74 76 75 75 89 92 91 91 89 89 92 90 86 80 76
20 21 23 39 50 55 57 60 64 69 75 79 81 82 82 84 86 89 89 87 84 80 78 74 72 71 72 89 91 88 90 91 91 92 91 85 85 81
22 24 33 49 55 59 61 64 69 75 81 84 87 89 91 91 91 90 90 88 85 82 77 74 74 73 74 88 85 88 90 89 88 86 86 87 88 84
23 28 47 55 59 61 64 69 73 79 86 91 95 97 97 96 93 92 92 88 83 81 77 73 73 73 88 91 88 85 86 88 87 81 79 83 85 91
24 43 52 60 62 63 69 74 79 85 93 97 98 98 98 96 95 95 93 91 85 82 79 70 71 74 90 88 86 88 82 88 86 80 79 78 80 88
40 50 60 65 65 67 72 78 85 94 98 98 98 98 98 98 97 95 93 89 85 81 78 71 69 79 86 87 89 91 88 88 86 81 81 80 81 87
51 57 66 67 67 69 76 83 90 96 98 98 98 98 98 98 98 97 93 88 83 80 77 70 73 86 87 89 93 93 95 91 87 83 81 85 90 94

GFSNE_prec_cthk_057.txt.gz
RH
68 66 60 57 53 54 51 42 38 34 30 32 29 26 24 22 19 19 17 14 18 18 23 28 28 29 33 37 40 40 44 46 48 49 51 53 54 54
69 65 60 57 58 54 44 38 33 31 31 27 26 25 22 20 17 15 13 14 15 17 21 27 32 35 38 40 44 50 50 53 56 60 63 63 64 64
69 64 59 60 56 46 39 33 33 32 28 27 26 23 21 19 17 16 17 19 16 20 28 33 41 44 48 52 55 57 58 58 60 61 61 64 67 67
66 62 64 56 48 38 34 33 31 29 30 27 24 21 19 17 18 19 20 21 25 31 39 44 49 52 54 59 58 58 58 59 59 59 59 60 61 63
66 66 57 48 36 35 34 31 31 31 28 27 23 21 20 19 21 20 23 27 35 41 45 47 48 48 48 49 51 54 54 53 52 55 56 55 56 56
68 57 45 35 35 35 31 34 33 30 29 29 27 25 25 24 24 25 32 38 39 41 42 41 43 40 41 41 42 42 44 45 44 46 50 50 51 53
55 39 35 34 33 31 35 33 31 29 31 33 31 30 30 27 27 39 40 38 37 39 40 41 41 42 43 44 44 45 45 45 43 42 46 47 49 52
36 34 33 30 31 32 32 30 30 34 32 31 32 31 29 28 42 44 43 44 40 44 45 44 48 45 48 49 49 50 48 48 45 44 45 47 48 53
35 32 29 31 30 29 26 27 30 29 32 32 30 28 32 43 46 47 49 49 47 47 48 45 49 48 52 54 56 52 49 48 47 48 49 52 53 55
29 29 30 28 26 26 28 30 31 30 29 27 28 37 47 51 53 53 52 51 52 54 58 51 55 53 54 58 62 57 54 53 55 55 54 56 60 62
30 29 28 25 25 27 33 31 30 27 24 25 41 49 52 54 56 57 57 58 55 58 63 59 58 57 58 62 70 64 60 59 60 60 59 64 68 72
28 25 23 24 26 30 32 31 28 23 26 41 48 51 52 56 60 65 67 66 66 62 72 66 63 69 58 66 74 71 64 63 62 62 65 69 75 78
25 22 21 22 24 26 26 25 24 32 44 48 51 52 55 61 66 70 75 78 78 78 82 80 71 73 76 65 69 71 66 63 61 63 68 76 85 89
23 22 22 23 23 22 22 23 29 44 50 53 54 57 60 66 72 77 84 89 93 91 85 88 79 80 76 71 66 65 64 62 62 65 78 84 87 86
22 23 23 22 17 17 18 26 43 53 56 56 60 64 69 74 82 87 92 94 93 93 92 88 85 82 79 74 66 63 60 60 65 76 79 81 82 83
21 22 20 18 18 18 26 46 56 59 59 62 67 73 80 88 93 94 90 90 85 85 91 90 87 83 77 75 69 63 63 63 75 79 80 80 81 80
24 18 17 17 17 25 47 57 61 61 64 71 78 86 90 91 90 91 91 87 86 82 80 87 86 81 77 74 66 63 63 74 79 79 81 79 81 78
18 18 18 19 24 46 57 61 63 66 74 81 89 90 85 86 89 94 96 91 84 83 81 78 78 72 70 67 70 69 73 79 77 80 82 79 76 80
18 19 19 23 44 59 63 64 68 75 83 89 83 84 89 93 95 95 95 93 85 85 83 78 74 70 66 58 65 85 84 80 81 82 84 82 78 78
20 20 22 42 59 64 65 69 75 83 88 81 84 88 90 89 89 93 93 88 84 80 77 74 71 71 69 72 80 79 83 83 84 82 82 83 82 79
21 22 40 58 65 67 70 74 81 86 80 84 85 85 82 83 84 85 85 84 80 76 71 70 74 81 87 90 87 85 87 89 88 84 81 79 77 78
23 33 56 68 70 71 74 78 86 82 82 88 86 82 82 83 83 82 81 80 79 79 80 84 89 94 95 95 94 91 89 88 90 85 80 80 78 75
28 52 69 72 74 75 76 82 84 80 84 89 92 91 90 90 92 91 92 93 95 96 97 95 95 96 97 97 96 94 94 94 90 88 85 85 87 90

GFSNE_prec_cthk_060.txt.gz
RH
76 74 69 67 64 60 57 54 52 50 43 39 33 31 29 26 24 24 22 19 15 12 19 20 22 28 29 29 31 33 36 35 37 44 45 45 46 48
78 69 69 68 63 61 59 57 54 46 39 33 31 28 26 26 24 22 18 16 14 14 19 22 24 29 33 35 37 40 42 45 46 48 54 55 57 57
73 69 70 68 63 61 60 57 48 38 34 31 27 27 27 25 22 19 16 15 15 14 19 25 29 35 40 43 45 48 50 52 54 54 54 55 58 63
73 74 70 66 65 62 57 47 35 35 32 29 30 29 29 25 23 19 17 14 15 18 24 33 37 38 39 40 42 45 46 46 47 49 54 55 55 57
78 72 67 69 63 55 42 35 35 34 32 33 31 30 28 24 21 18 16 15 20 28 33 34 34 38 40 40 40 39 39 38 38 38 40 46 50 54
72 72 67 62 51 37 34 35 33 34 34 32 31 31 29 23 21 20 17 21 29 35 34 34 37 38 39 39 38 39 39 43 43 42 41 46 44 43
70 65 57 44 35 33 34 33 35 34 32 32 35 31 27 23 20 20 25 32 34 37 36 37 39 38 39 39 40 41 41 46 46 46 44 44 47 45
61 50 37 33 31 29 30 31 33 33 34 35 33 31 26 23 22 32 38 39 37 42 42 41 43 40 41 43 43 44 46 49 49 49 50 48 46 48
42 34 32 29 29 30 29 29 30 29 33 33 32 28 24 26 39 43 45 47 46 45 47 44 48 44 47 49 52 53 52 50 53 54 55 53 51 49
33 31 29 30 28 28 30 30 30 28 30 28 25 24 34 44 49 50 51 51 50 53 58 49 53 51 53 55 61 63 61 59 60 60 59 58 56 55
30 29 29 27 26 30 28 28 26 23 22 22 26 40 48 51 54 56 56 57 55 57 68 62 61 61 60 57 65 73 67 65 64 62 61 63 64 62
30 28 26 24 24 27 28 26 24 21 23 27 40 48 52 56 59 63 66 67 69 64 79 77 75 79 62 58 65 77 72 71 66 64 64 65 65 64
28 25 23 22 26 24 23 22 20 25 29 40 45 52 57 60 65 72 80 85 86 88 94 94 80 79 79 65 62 76 71 68 66 63 64 66 65 64
24 22 21 24 24 17 16 16 23 32 41 47 54 57 61 67 76 86 94 97 97 93 89 93 80 80 77 72 71 71 72 67 64 61 63 65 64 73
22 23 22 19 16 15 16 19 34 45 51 57 61 65 71 78 83 82 86 91 92 95 96 95 87 83 82 81 74 69 66 61 63 61 62 61 70 78
21 17 16 15 15 16 19 37 47 55 59 63 68 75 76 74 78 82 82 88 91 90 93 94 87 85 81 82 76 66 64 61 61 62 60 69 76 78
18 15 15 14 15 19 38 48 57 62 66 72 76 71 72 72 72 75 80 86 92 90 86 85 85 83 81 77 69 66 62 62 62 64 74 78 80 80
15 15 15 16 19 37 50 58 62 68 73 76 71 74 70 69 69 72 78 82 82 81 77 76 74 71 69 68 76 68 69 70 76 81 82 79 77 81
16 17 18 19 35 51 60 64 68 73 77 71 77 77 72 71 73 74 76 76 75 73 71 71 70 70 68 66 70 85 83 81 83 86 85 83 78 81
18 19 19 29 50 63 66 70 72 78 73 75 82 83 83 83 83 83 84 81 79 77 77 80 82 87 91 91 87 86 90 88 87 84 82 81 78 73
19 20 24 49 65 68 71 72 76 78 74 79 84 85 86 87 89 93 94 96 98 98 96 95 97 97 97 98 95 92 92 93 90 84 80 77 73 71
21 24 46 66 71 74 74 75 78 79 76 81 84 85 86 87 90 93 95 97 97 97 97 96 97 96 97 99 97 96 95 94 96 96 93 89 87 84
25 43 66 73 76 77 75 77 78 78 75 79 83 83 83 84 89 94 95 96 97 97 97 96 96 97 98 98 97 95 96 95 93 88 91 95 96 97

GFSNE_prec_cthk_063.txt.gz
RH
74 72 73 70 78 71 65 64 63 57 55 58 55 47 40 33 30 28 25 24 23 22 20 24 24 23 26 30 31 30 31 32 33 34 35 42 45 46
71 71 74 74 71 71 68 66 61 56 54 52 46 38 33 31 29 27 26 24 21 19 18 23 23 24 27 31 32 34 35 37 37 39 40 43 49 52
81 80 73 72 76 72 69 70 64 58 52 44 36 32 30 27 26 25 23 21 18 16 15 19 22 23 28 31 34 36 37 38 39 40 40 42 44 47
80 77 78 75 76 74 71 68 61 51 42 36 33 30 29 28 27 24 22 19 16 13 14 19 25 28 31 32 34 38 39 39 40 40 40 40 41 41
92 86 84 79 78 76 67 59 47 38 35 34 31 31 30 29 26 24 21 18 16 16 20 24 28 29 32 34 36 38 35 36 36 36 36 37 41 43
84 81 79 76 72 65 50 40 37 34 33 33 31 31 30 27 25 23 22 18 20 24 27 31 32 32 34 35 36 35 35 34 38 38 38 39 40 45
83 82 76 68 57 44 38 34 32 32 32 32 32 30 28 27 26 22 21 24 27 32 31 32 37 38 39 40 40 39 39 39 43 44 45 44 44 49
79 71 59 48 40 35 31 28 30 34 33 31 30 29 27 24 21 22 29 33 32 36 39 39 44 42 45 45 46 47 47 50 51 50 51 50 50 51
63 52 43 38 33 29 29 30 30 29 29 30 27 24 22 21 28 34 40 41 43 45 49 43 49 46 51 49 53 55 57 59 60 60 58 57 56 56
45 40 36 32 30 29 28 29 30 27 26 22 20 18 23 33 42 44 46 47 49 52 60 49 55 53 55 57 64 70 75 76 70 68 64 61 60 62
38 34 32 30 27 25 30 29 27 21 18 17 18 25 36 42 46 49 53 56 55 59 71 73 67 67 68 66 71 80 83 83 78 70 64 63 64 67
33 31 28 26 26 30 28 25 20 16 18 17 28 37 43 49 57 64 67 70 74 66 75 78 73 79 66 61 64 75 78 83 82 74 68 66 67 68
29 27 24 24 28 26 23 18 16 20 22 31 37 44 52 59 66 70 72 73 71 71 78 86 76 83 85 69 63 69 75 78 75 72 69 63 63 64
26 24 23 23 19 16 15 14 14 22 33 40 47 54 59 64 64 66 64 66 70 75 78 92 87 89 85 75 66 68 77 76 73 68 63 60 60 61
23 21 18 16 15 14 14 15 25 36 43 50 56 63 62 61 64 58 59 62 64 72 78 84 86 85 82 77 72 72 69 66 68 64 62 59 59 60
19 17 17 16 16 16 17 30 39 46 53 59 64 63 64 66 64 63 63 65 63 62 71 75 76 76 75 76 73 65 63 64 65 65 63 60 61 66
17 16 16 15 15 17 30 40 49 57 62 67 65 64 69 70 71 75 77 77 77 71 65 68 72 73 74 74 71 71 69 70 70 68 70 71 76 79
17 16 16 16 17 27 41 50 59 63 68 69 65 70 72 74 75 78 84 87 88 88 88 88 86 81 79 81 83 80 81 81 79 80 83 83 82 82
16 16 17 18 24 43 54 63 65 69 72 68 70 74 76 77 78 81 87 91 92 94 94 96 94 95 92 90 89 90 83 85 89 88 85 88 86 84
18 18 19 22 43 57 66 68 69 72 73 70 73 77 79 78 78 85 90 93 93 94 95 97 97 96 94 93 90 90 95 91 92 90 89 90 85 81
17 19 23 41 60 68 71 71 72 73 72 71 75 78 78 78 80 84 89 96 97 97 97 97 98 98 98 98 96 95 95 98 97 95 93 92 89 86
20 23 42 62 69 72 72 74 73 74 75 75 76 79 79 79 79 83 90 96 97 98 96 97 97 97 98 98 98 97 97 96 97 97 96 95 95 92
23 44 62 69 73 73 75 74 73 73 74 76 78 81 80 78 80 85 91 95 97 97 97 96 95 97 98 98 98 97 96 96 93 94 90 91 91 92

GFSNE_prec_cthk_066.txt.gz
RH
93 90 90 88 79 75 79 77 69 67 68 73 71 70 62 55 47 40 34 29 27 25 24 22 26 28 27 26 30 32 31 31 30 31 32 33 33 34
88 86 87 88 80 80 81 77 76 71 69 70 68 62 56 47 39 34 29 26 27 26 22 20 25 26 27 28 30 30 31 32 33 34 35 36 36 42
84 86 89 87 72 71 81 81 73 72 68 66 61 54 43 37 32 27 26 27 24 21 18 16 23 22 24 27 27 30 32 33 36 37 37 37 36 37
92 88 92 78 88 86 86 84 77 68 61 56 47 39 37 30 27 28 27 25 21 17 15 17 22 21 24 26 28 31 36 38 37 38 38 36 35 37
88 90 88 91 93 90 79 76 75 64 50 43 39 34 29 31 30 27 24 19 16 15 16 20 22 23 26 32 34 35 35 35 36 38 39 37 37 38
92 88 87 92 87 86 79 67 54 46 41 37 31 32 35 30 26 24 21 17 18 19 21 25 27 29 30 33 34 36 36 37 37 41 40 39 39 38
89 93 95 87 78 68 56 47 42 38 33 32 35 33 29 27 25 22 19 21 24 26 25 28 31 33 37 40 42 43 43 43 43 46 46 47 49 46
97 90 79 68 58 49 43 40 37 32 36 35 31 27 24 22 21 21 27 31 30 33 33 34 43 43 47 49 52 54 53 52 54 52 52 51 50 50
79 70 58 50 43 40 36 31 32 32 32 29 26 22 21 20 26 32 34 36 39 43 48 41 53 51 57 63 68 71 72 70 69 66 64 63 62 64
59 51 48 43 37 32 31 34 30 26 24 20 18 18 22 31 36 38 39 41 47 50 54 41 43 42 45 49 60 73 83 86 84 83 80 78 76 72
48 42 37 33 32 31 35 31 26 19 18 17 18 24 33 36 40 43 48 49 46 44 47 48 44 43 45 50 62 73 83 86 84 79 75 72 68 66
36 35 32 29 27 31 29 25 20 18 19 16 25 34 38 43 50 54 51 53 51 48 53 53 49 54 46 56 69 76 79 82 80 75 69 67 68 68
33 30 27 23 21 19 20 21 19 23 21 28 33 38 46 53 57 54 59 59 59 61 63 65 54 56 61 54 54 64 69 70 70 70 70 69 69 68
27 23 21 19 19 19 18 17 18 20 30 35 41 48 55 58 54 62 63 66 69 70 72 76 70 66 61 57 56 57 62 64 65 65 66 65 64 64
21 20 19 18 18 17 16 16 21 32 38 45 52 59 60 55 62 65 66 68 72 78 81 82 82 84 82 76 66 63 61 63 67 63 64 64 62 61
19 18 18 17 17 16 16 23 34 41 49 56 63 63 57 63 66 66 66 69 74 80 87 89 91 91 89 88 85 77 73 73 75 75 72 68 67 66
19 17 16 15 14 15 22 35 44 54 61 64 65 60 63 67 68 67 69 74 80 83 85 90 93 94 94 92 85 84 82 84 84 84 87 81 79 80
17 15 14 14 15 20 37 48 59 64 66 67 66 64 68 70 68 69 73 78 81 87 87 89 89 87 87 88 90 86 83 83 89 92 91 88 83 85
16 14 14 15 19 39 54 62 65 66 68 69 67 68 71 72 72 72 74 79 86 89 92 93 91 90 86 85 89 93 87 91 93 92 93 94 91 86
15 15 16 21 44 57 62 65 66 69 70 70 71 73 76 77 74 76 78 82 88 91 92 94 95 93 92 91 90 91 98 94 94 92 93 94 93 90
14 17 25 47 57 62 64 66 68 68 68 70 72 75 78 77 75 77 81 87 93 96 94 94 96 97 97 97 94 90 92 97 97 94 92 92 90 89
16 27 46 56 61 63 65 67 69 68 68 69 71 74 75 76 76 79 82 86 91 95 94 94 95 96 97 97 96 93 87 87 91 94 94 94 88 86
25 41 54 59 62 63 65 67 68 67 67 67 72 74 74 74 75 78 79 82 90 94 95 93 94 96 98 98 98 94 92 89 87 90 92 92 92 87

GFSNE_prec_cthk_069.txt.gz
RH
90 91 89 91 86 89 86 91 87 88 86 79 76 78 77 68 61 56 51 45 39 34 31 26 24 29 32 31 30 31 32 33 33 33 32 31 31 33
92 88 88 85 84 90 83 86 85 80 70 78 81 80 75 66 58 51 45 38 35 29 26 25 26 31 29 27 27 30 28 31 31 31 32 32 33 35
90 85 88 87 86 90 85 92 92 89 95 90 80 74 69 60 51 44 37 33 29 27 24 22 20 23 23 23 23 25 28 30 31 33 35 36 38 42
88 82 85 90 92 98 97 99 97 86 84 76 71 64 54 47 42 37 31 29 27 22 19 17 17 17 19 24 26 27 30 33 35 35 36 36 37 38
78 85 91 97 94 98 98 97 91 83 75 67 60 52 46 38 34 31 29 23 19 16 16 18 19 21 22 23 30 31 32 33 34 35 36 37 38 39
86 91 97 94 98 98 93 79 76 68 62 56 49 44 36 33 33 29 27 19 18 18 20 22 24 26 28 30 32 34 35 36 37 41 42 43 42 43
91 95 98 98 90 80 73 67 59 54 46 41 38 35 34 35 31 24 22 24 23 22 24 28 31 35 38 39 39 38 40 43 47 52 53 54 55 53
98 98 95 87 74 67 61 56 49 41 40 38 37 35 33 24 21 23 26 30 29 29 31 35 35 33 33 33 35 36 37 39 46 55 64 72 66 61
86 82 74 67 64 57 50 41 37 36 36 35 32 24 21 19 23 27 30 33 35 36 35 36 37 33 36 34 36 36 37 41 47 58 68 74 84 80
76 69 62 56 46 38 35 36 33 31 29 23 20 19 20 25 32 34 36 38 41 40 43 41 38 40 41 38 36 39 43 47 54 66 72 79 79 79
61 54 46 39 37 35 37 34 26 21 19 18 19 19 25 29 34 37 43 45 41 46 49 49 49 49 49 44 41 42 44 49 55 60 67 72 73 72
43 39 36 34 31 33 29 22 20 18 17 15 19 27 31 37 43 48 48 46 51 52 54 57 57 60 57 62 57 51 47 49 51 55 59 62 63 65
33 31 29 24 21 19 19 18 16 18 14 20 28 33 40 48 54 54 52 56 60 60 62 65 66 71 75 69 72 70 61 55 51 53 56 58 60 62
27 24 21 19 18 17 15 14 13 15 24 31 37 45 53 58 56 55 62 65 64 64 68 74 75 79 81 78 74 74 74 71 64 62 66 64 62 61
21 20 18 16 15 13 13 14 17 26 34 41 49 56 60 57 55 63 66 64 64 68 72 77 81 85 87 83 79 74 71 75 74 80 81 81 78 73
19 18 16 14 13 12 13 19 29 40 47 53 58 60 58 56 64 66 64 64 63 68 77 83 86 89 89 86 82 75 79 80 80 83 85 87 89 85
17 16 14 12 12 14 20 34 45 52 55 58 60 60 59 63 67 68 68 67 68 70 78 85 88 91 91 89 81 84 81 83 88 90 90 88 90 88
16 14 12 12 14 20 40 47 53 56 58 60 62 63 65 68 69 69 69 70 72 78 82 85 86 86 87 87 89 84 84 84 86 89 90 89 89 94
14 13 12 15 25 44 48 52 56 58 60 61 63 64 67 69 69 69 68 71 76 80 83 88 91 90 85 82 90 95 88 86 86 87 91 91 90 92
13 12 16 30 44 48 52 54 57 60 61 60 62 64 68 69 70 69 71 73 75 76 84 91 94 95 92 89 85 86 94 90 88 83 83 87 89 89
13 16 29 43 48 52 54 55 58 59 60 60 61 65 67 68 68 69 70 72 73 75 82 90 95 96 95 94 90 88 89 93 93 90 89 86 84 86
15 24 38 47 52 55 55 56 58 60 60 60 60 62 65 66 66 66 67 66 68 68 74 87 92 92 94 96 92 89 86 89 94 96 96 95 91 84
20 29 42 50 55 57 59 59 58 60 62 62 62 63 62 60 62 65 62 57 61 64 70 83 92 95 95 96 96 93 90 90 89 86 88 95 96 95

GFSNE_prec_cthk_072.txt.gz
RH
89 96 92 93 92 88 98 91 81 87 87 85 88 85 86 78 71 75 80 70 64 55 48 42 36 32 27 29 33 33 32 30 29 31 32 34 34 33
96 97 95 96 89 92 88 89 93 90 94 90 90 96 96 97 93 82 72 62 55 49 43 38 31 27 29 34 32 30 28 28 29 31 31 31 31 31
89 92 90 96 88 86 89 94 89 88 93 98 98 98 95 82 75 67 62 58 48 43 37 31 28 27 28 26 25 25 24 25 27 29 29 32 32 33
81 86 84 82 94 89 92 90 93 98 98 97 94 87 77 71 66 63 54 46 37 32 31 28 26 23 20 19 20 24 25 25 27 29 31 32 34 35
80 82 79 81 87 89 87 93 98 97 91 85 77 71 62 57 52 49 41 37 35 29 26 24 21 21 21 21 22 23 25 27 28 30 30 31 36 39
80 80 80 82 90 90 90 95 90 84 78 68 65 64 60 53 47 44 41 35 32 24 23 23 22 23 25 25 25 24 23 23 24 26 31 33 34 35
86 85 89 87 95 94 95 84 74 71 67 65 61 52 46 43 39 35 31 27 25 26 27 28 30 30 28 27 26 24 23 26 27 31 33 34 37 41
97 97 97 96 88 80 76 75 69 60 60 52 48 44 39 35 30 27 26 28 28 27 33 32 35 33 32 32 30 30 31 30 31 35 35 35 40 45
98 93 83 81 77 73 66 55 47 44 44 43 39 34 29 26 24 24 28 30 31 35 38 35 35 37 40 42 43 41 39 37 38 37 38 39 43 51
84 76 72 69 62 53 47 44 40 38 30 25 24 21 21 22 26 29 30 33 37 41 41 39 41 45 48 51 51 52 52 51 50 46 44 43 44 51
75 66 56 47 41 36 42 34 27 22 19 17 16 15 16 22 27 31 37 43 42 40 42 46 49 50 51 57 61 63 65 64 61 57 50 49 48 48
48 44 39 34 31 28 23 20 18 16 14 13 15 20 25 29 35 42 46 47 45 46 52 53 52 56 56 66 70 70 70 70 69 67 61 57 57 59
34 31 27 24 21 18 17 16 14 12 15 16 23 28 35 42 47 51 50 47 53 56 56 57 57 62 68 69 71 73 72 71 71 67 66 62 65 69
26 23 21 19 17 15 13 12 11 12 19 28 34 41 46 51 51 49 50 57 59 58 57 61 61 67 73 75 75 74 74 73 71 72 72 74 75 76
22 20 19 17 15 13 11 11 14 23 34 40 45 48 50 50 49 52 57 60 60 61 61 62 67 74 81 82 79 75 73 75 76 77 82 87 91 92
21 20 18 15 12 10 11 16 30 39 43 46 48 51 52 53 56 59 60 60 59 60 64 68 73 80 84 87 84 77 78 80 77 82 86 88 90 90
21 18 16 12 12 13 20 35 40 43 46 49 50 51 53 55 59 62 62 63 62 61 66 71 75 84 88 89 84 83 82 83 82 83 84 85 88 87
19 16 12 12 14 23 37 41 43 46 48 50 51 52 54 58 62 65 66 67 66 68 67 67 73 83 89 91 92 85 86 87 87 87 86 84 82 88
16 12 12 15 26 37 41 45 46 47 49 51 53 54 57 60 62 64 65 65 66 67 69 69 71 83 87 87 92 95 88 88 88 86 87 88 86 84
14 12 14 25 35 40 45 47 48 49 50 52 53 54 56 58 59 61 62 64 62 58 60 67 69 82 92 90 84 86 94 92 90 88 88 90 92 91
13 13 19 32 38 43 47 50 51 53 53 53 55 57 58 59 60 58 58 62 63 57 53 61 67 82 92 94 91 89 89 95 95 93 91 90 85 83
14 16 23 33 40 46 50 53 55 58 60 60 58 59 60 61 59 56 55 59 61 57 47 50 64 80 90 95 95 93 90 92 95 93 93 93 93 88
14 19 25 34 42 48 53 57 60 63 64 66 66 64 62 63 61 55 53 55 60 58 49 46 60 77 90 97 96 93 91 88 87 87 89 94 96 96

GFSNE_prec_cthk_075.txt.gz
RH
62 74 79 85 86 87 93 98 94 97 92 98 93 91 92 95 89 86 90 95 94 88 81 70 58 53 49 44 38 34 38 38 36 34 35 39 36 37
64 72 80 84 94 89 98 98 94 94 98 97 91 94 94 90 94 94 94 93 82 73 70 61 57 51 44 40 39 42 41 37 35 35 37 37 35 33
76 78 83 84 93 92 88 97 98 95 96 97 95 95 92 93 95 89 81 74 70 68 64 57 49 39 36 38 39 37 34 32 30 30 32 31 33 34
76 78 82 84 84 89 89 93 94 83 91 84 86 87 88 84 81 75 67 60 59 53 45 39 34 33 31 28 29 28 29 28 27 28 28 29 30 30
81 83 85 85 82 81 78 78 77 79 81 86 79 75 76 72 69 68 66 55 43 37 35 32 29 26 24 24 24 23 23 23 24 25 25 25 24 24
84 88 87 87 81 82 79 80 79 81 81 78 74 76 73 70 63 52 46 43 36 29 28 27 25 26 26 25 23 23 21 21 21 22 25 26 28 30
87 87 96 95 94 91 88 90 83 74 77 76 71 71 61 51 51 44 37 33 24 23 25 24 26 24 23 23 23 24 25 28 30 31 32 33 34 35
99 97 98 97 95 93 83 78 78 73 65 60 58 50 46 40 34 29 26 21 25 22 25 22 26 25 25 27 29 30 31 33 36 40 41 43 43 43
98 98 98 91 87 83 77 75 65 54 45 41 38 35 29 26 24 19 20 25 25 27 31 30 30 30 32 33 35 38 40 41 42 45 49 55 54 50
89 83 80 76 71 64 54 46 42 37 33 28 24 19 16 16 18 21 25 27 31 36 40 37 35 36 37 41 43 45 48 50 53 56 58 60 59 57
80 68 58 53 45 38 32 29 24 23 21 17 14 13 13 17 22 26 32 39 42 40 40 40 42 44 44 44 48 53 56 59 61 62 62 62 61 59
46 43 38 31 25 22 20 18 16 16 14 14 15 17 21 26 33 39 43 45 44 41 47 51 51 50 47 51 55 60 63 65 67 66 65 66 64 62
29 27 24 21 19 18 17 15 12 10 10 13 18 26 33 38 42 45 45 44 48 52 55 56 54 55 57 54 62 66 68 69 68 67 65 66 67 69
23 21 20 20 19 17 14 11 10 10 14 24 31 36 39 41 44 46 48 52 55 56 57 59 57 60 63 64 65 69 73 73 70 69 70 72 75 79
22 22 21 19 16 14 11 11 11 19 30 34 37 39 41 43 45 48 51 54 56 57 58 58 60 65 67 69 72 77 76 75 74 75 75 75 79 79
23 22 19 17 14 12 11 13 24 32 35 38 40 42 43 44 47 50 53 56 57 57 59 60 64 66 66 71 80 80 81 80 78 79 77 77 80 80
23 21 19 15 13 13 15 27 32 36 38 40 42 44 45 47 49 53 55 56 56 55 55 57 60 64 64 68 78 83 82 83 83 81 83 80 82 84
23 21 19 15 14 17 29 33 36 39 41 42 43 44 46 47 49 52 54 55 55 57 57 53 52 54 59 67 84 86 85 84 86 89 90 85 82 86
25 22 19 16 17 30 33 36 40 42 44 46 47 47 47 49 52 53 54 53 52 54 57 56 50 52 56 66 79 94 89 88 88 89 91 90 87 83
24 22 19 17 24 33 36 39 42 46 49 51 53 54 56 55 56 58 57 53 49 50 54 59 55 49 53 65 73 82 95 93 91 88 87 87 84 81
24 22 20 19 26 35 39 42 45 50 54 57 60 62 63 63 61 61 61 59 52 50 53 57 57 48 48 62 72 86 93 97 95 91 90 87 82 80
25 22 22 22 27 34 40 44 47 53 58 62 64 64 65 66 67 65 63 62 54 52 54 57 57 51 46 58 71 87 92 94 96 96 95 92 88 84
25 24 24 26 28 34 41 46 49 54 61 64 64 65 65 66 68 68 65 63 54 53 56 58 57 52 47 52 70 84 92 93 93 92 93 95 95 94

GFSNE_prec_cthk_078.txt.gz
RH
70 72 74 76 76 81 81 84 87 86 88 98 97 97 98 96 97 97 95 84 89 85 85 88 82 77 72 66 62 57 52 53 53 48 45 42 44 47
65 72 78 79 78 82 86 89 87 91 88 98 96 97 97 96 96 93 88 87 87 84 76 73 71 67 64 60 56 54 54 51 46 44 44 46 47 46
72 76 80 85 89 91 94 92 95 92 93 98 98 98 94 89 90 88 86 81 75 72 70 65 59 55 51 50 47 45 45 45 42 40 38 38 38 38
66 68 76 86 87 89 90 95 89 86 92 90 88 86 80 81 78 75 73 65 67 67 64 58 50 45 42 41 40 38 36 34 33 31 29 29 29 29
74 76 80 82 92 93 91 87 99 86 83 79 79 78 77 71 69 70 68 67 57 46 43 43 39 35 31 30 28 26 27 28 28 27 26 25 24 24
78 81 87 91 90 86 92 94 95 92 92 81 72 72 73 69 65 59 53 49 42 37 32 28 26 23 23 23 22 21 20 22 26 27 27 27 28 29
75 79 81 83 97 90 93 94 93 83 82 81 76 70 67 58 55 46 38 31 24 22 24 20 20 20 20 21 23 24 25 30 31 32 33 34 35 37
86 86 94 96 96 97 90 89 87 81 75 66 53 47 43 40 32 25 20 16 15 18 19 17 23 23 26 27 27 28 30 33 36 39 40 42 44 46
82 92 96 95 91 85 77 74 66 56 49 40 33 28 22 19 15 12 12 15 19 23 26 26 28 28 29 30 31 32 34 38 40 42 47 49 53 56
71 73 75 79 73 63 50 41 36 30 25 21 18 14 12 10 10 13 19 23 29 32 33 29 30 31 34 37 38 40 42 43 46 51 55 59 61 62
61 51 44 39 36 31 26 22 19 19 17 14 10 10 10 13 20 27 30 34 34 33 34 34 36 39 42 43 43 43 46 49 52 56 60 62 65 65
31 28 26 25 22 20 19 18 16 13 11 9 9 12 18 25 30 33 36 37 40 40 43 44 45 47 47 45 46 48 52 57 61 62 64 65 67 65
23 22 21 20 20 20 18 15 13 10 9 9 15 24 28 31 34 36 38 41 43 46 50 52 52 53 54 50 49 53 58 64 67 70 69 68 68 68
22 21 21 21 19 17 15 13 11 10 11 21 27 29 32 34 36 37 39 44 48 51 53 56 55 55 54 55 54 52 56 67 72 72 71 72 72 69
23 21 21 20 18 17 14 12 12 15 25 28 30 32 34 37 37 39 41 44 47 50 53 54 56 55 54 52 52 52 54 66 74 73 73 74 72 71
23 22 22 21 19 17 16 15 18 28 30 32 33 35 37 39 40 41 42 45 47 48 51 57 57 56 51 47 50 50 55 70 74 74 74 75 76 77
25 24 24 23 20 19 18 22 30 31 33 35 37 39 41 42 43 44 45 46 48 47 47 49 55 54 52 48 42 49 60 69 77 78 79 78 80 81
25 25 24 22 20 20 23 32 31 34 36 39 40 42 45 48 49 51 52 52 53 51 47 46 48 50 51 46 41 41 58 69 81 85 86 81 79 83
25 25 25 22 20 21 32 35 35 36 39 41 43 46 50 53 55 57 58 58 57 57 54 47 48 53 52 49 42 46 56 68 84 87 86 84 82 81
26 25 25 22 21 24 35 38 39 39 41 44 47 51 56 59 60 61 62 62 61 59 58 50 50 54 56 54 46 36 53 68 86 87 87 87 84 82
27 26 26 23 23 26 35 42 43 44 46 48 50 54 60 61 61 62 63 65 65 62 57 50 52 55 56 51 46 39 46 66 88 92 90 88 86 82
29 29 28 26 26 28 34 42 46 48 50 50 52 56 63 63 63 63 64 64 63 61 53 50 50 53 54 54 49 41 45 55 74 90 94 90 86 84
33 31 29 28 28 30 34 40 46 50 52 54 56 59 64 65 66 67 68 68 65 58 52 50 50 52 53 55 57 51 48 53 69 81 89 94 94 92

GFSNE_prec_cthk_084.txt.gz
RH
44 44 45 48 55 55 59 62 70 71 82 81 86 88 88 87 95 92 97 98 96 95 94 89 88 91 91 90 87 78 77 77 73 68 65 65 67 73
41 42 44 48 49 47 54 58 68 71 79 80 81 82 85 91 94 97 97 97 97 94 90 87 87 85 80 75 74 74 72 68 65 62 59 61 65 67
43 43 44 47 45 50 53 60 62 66 71 76 79 85 85 96 94 97 97 96 94 92 89 83 77 73 74 76 75 70 65 63 59 56 55 54 53 54
44 46 47 45 46 50 52 55 58 67 72 76 81 84 91 94 97 96 96 91 85 84 82 80 73 61 49 45 44 48 50 51 50 48 48 47 47 47
42 43 44 45 49 52 57 59 65 72 76 80 87 92 95 96 94 91 88 85 71 58 47 34 28 24 20 19 20 21 24 23 23 24 26 32 33 34
43 46 48 51 51 56 60 65 72 76 81 86 86 86 90 91 86 72 53 37 30 25 17 13 11 11 12 13 14 15 17 17 18 19 23 25 26 27
47 50 53 55 58 58 63 69 76 80 82 84 84 77 62 48 36 29 24 19 12 9 9 11 13 16 18 20 22 22 23 23 24 25 27 29 29 29
51 55 58 60 64 68 71 74 74 71 60 46 32 25 23 21 18 16 13 9 9 13 15 21 22 22 22 23 24 24 25 25 26 28 30 33 34 35
57 58 59 62 62 56 45 30 22 20 20 19 19 18 17 15 13 11 10 11 18 23 23 22 22 23 24 26 26 28 31 33 34 36 39 41 41 43
50 43 33 27 22 19 19 18 17 17 17 17 16 16 13 12 11 12 16 22 24 26 25 23 26 26 28 29 30 34 37 39 41 40 40 40 41 44
25 22 21 20 19 17 17 16 16 16 16 16 15 15 13 13 17 22 24 25 27 28 28 27 27 27 28 30 35 40 42 43 43 43 42 40 41 45
22 20 19 19 18 18 17 18 18 17 17 17 16 14 14 18 25 26 27 28 29 30 29 30 30 31 30 32 35 39 40 41 39 40 39 40 42 47
21 21 20 20 20 20 20 20 20 19 18 17 16 16 22 27 28 28 29 30 32 31 32 33 33 35 36 34 36 40 41 38 34 36 38 40 43 49
22 22 22 22 22 21 21 21 20 19 18 18 20 27 28 31 30 30 31 32 34 34 35 38 38 38 36 35 33 34 37 38 33 28 34 39 44 47
25 24 24 23 22 21 21 20 19 20 20 22 29 32 32 34 35 34 33 35 37 38 41 43 44 45 46 42 38 35 36 38 38 35 31 33 39 50
26 25 25 23 22 22 21 20 21 22 25 30 33 35 37 38 38 38 38 40 41 43 45 48 49 49 49 50 45 39 41 42 39 36 33 30 38 49
28 27 26 25 24 23 22 23 25 26 32 34 36 38 40 42 44 44 45 47 48 49 53 55 54 54 53 53 46 43 43 43 40 37 37 32 34 47
31 30 29 27 27 26 25 26 28 32 34 38 41 42 45 46 48 51 51 52 52 54 56 56 57 56 54 52 47 44 45 45 44 44 45 43 35 42
34 34 33 31 31 30 29 28 30 35 37 40 45 47 48 50 52 56 58 55 55 58 62 60 62 61 56 51 47 49 47 47 45 44 45 45 46 44
39 39 37 37 36 34 33 32 29 34 38 41 47 51 52 53 56 59 61 59 58 59 64 66 68 67 64 57 54 53 52 50 49 46 42 41 42 47
44 44 44 42 40 38 37 35 32 31 35 42 47 50 54 57 60 61 60 62 62 62 64 68 72 71 67 65 60 54 55 56 53 50 46 44 42 48
47 49 49 48 44 42 39 37 36 34 34 39 46 50 54 60 60 57 56 58 65 66 64 69 75 73 71 70 66 62 58 55 53 50 50 50 49 48
50 51 52 51 48 46 42 40 40 39 38 41 44 48 53 55 51 52 56 60 64 67 68 70 78 78 75 75 72 68 63 58 53 46 44 47 46 43

GFSNE_prec_cthk_087.txt.gz
RH
43 44 43 42 43 47 47 47 54 52 52 55 59 60 63 65 63 70 75 75 85 91 95 98 98 94 93 91 89 87 88 87 85 81 81 81 76 79
35 38 40 41 43 45 48 46 50 52 55 54 61 59 61 64 70 73 78 84 87 90 93 94 93 92 93 91 87 86 81 80 79 77 78 79 79 71
37 43 43 44 43 44 46 53 47 56 55 57 58 59 63 67 74 79 80 83 86 90 92 90 87 85 80 77 74 68 65 63 60 58 57 58 56 56
44 42 44 44 45 44 44 43 47 50 53 58 61 65 67 72 77 82 85 86 87 85 80 79 72 48 32 25 21 19 23 28 28 30 32 35 37 40
40 40 42 43 44 44 46 46 50 52 56 60 64 69 75 76 79 81 83 82 81 71 41 26 21 14 10 8 9 10 13 17 15 15 16 16 17 22
38 40 43 44 46 49 52 53 56 58 62 67 70 73 73 71 73 70 55 33 22 19 15 11 8 8 11 12 14 15 17 18 19 20 20 22 25 27
42 43 45 48 51 54 56 59 63 64 67 67 62 57 48 32 21 18 17 15 13 10 8 8 10 13 17 19 20 19 19 20 20 21 24 27 29 29
47 48 50 53 56 58 59 60 58 49 37 25 18 16 16 16 16 15 14 11 9 9 10 15 18 20 21 21 19 19 20 22 23 25 27 34 35 37
50 53 54 54 50 42 31 22 18 17 16 15 15 15 14 14 14 13 12 10 10 16 20 21 20 22 23 22 21 21 22 24 28 31 33 35 36 38
52 46 34 26 21 18 18 17 16 16 15 15 15 15 15 15 14 14 13 14 20 23 22 21 24 25 24 22 21 23 26 28 30 34 36 36 35 37
29 23 21 20 18 18 17 17 17 17 17 17 17 17 17 16 15 15 20 24 25 25 24 24 27 26 24 23 25 28 31 32 32 36 37 36 34 35
22 21 21 19 19 19 18 18 18 18 18 18 18 17 16 17 17 24 27 27 29 27 27 28 30 30 27 27 28 30 32 35 35 35 35 35 32 32
22 22 22 21 21 21 20 20 20 19 19 18 17 17 17 20 26 28 29 30 32 33 34 33 33 37 37 35 34 34 32 32 34 36 34 33 34 33
23 24 24 23 22 21 21 21 21 20 19 18 18 19 23 28 29 31 33 34 35 37 38 40 41 43 43 42 41 45 42 37 36 38 37 38 37 35
25 26 26 25 23 23 22 22 21 22 22 21 23 27 30 32 33 35 37 38 40 42 43 44 46 48 49 48 44 46 44 42 41 41 40 39 36 33
28 28 27 26 25 25 25 25 25 25 25 24 29 33 34 36 37 40 42 44 45 48 51 53 54 53 52 53 51 50 51 45 43 44 42 40 38 37
31 31 30 28 28 28 28 28 28 29 28 29 33 36 37 38 41 45 46 47 50 54 58 61 59 56 54 56 55 56 51 46 45 45 44 41 41 42
34 34 33 32 32 32 32 32 31 32 31 33 36 37 40 42 45 48 51 54 55 59 61 61 61 59 58 60 61 60 55 50 50 48 47 43 40 40
37 37 38 38 38 37 37 36 34 33 32 35 38 41 43 46 50 52 55 58 61 61 59 57 60 60 60 60 65 69 59 58 56 53 50 47 44 40
40 40 42 44 45 44 42 40 38 35 33 33 37 43 45 48 53 55 58 61 61 58 56 60 62 63 64 62 62 72 67 64 63 58 54 50 46 41
43 45 47 48 49 49 47 44 41 39 38 38 37 38 44 48 53 55 58 62 60 58 56 58 63 65 67 66 63 69 74 73 70 65 60 56 50 44
46 47 48 50 51 52 51 49 45 43 43 44 45 42 43 45 48 53 58 58 55 55 55 58 64 68 72 70 67 71 75 78 76 71 67 61 58 51
49 50 50 51 53 55 55 54 51 48 47 48 49 48 48 48 47 50 54 51 53 57 57 59 66 71 73 74 73 76 79 77 71 68 67 63 58 53

GFSNE_prec_cthk_090.txt.gz
RH
40 39 44 43 41 42 43 44 45 50 50 49 47 47 51 52 56 55 58 60 66 69 72 77 85 88 89 89 90 91 94 92 92 91 83 79 81 87
38 37 38 36 36 40 42 44 46 45 51 47 49 54 52 55 54 56 61 66 71 73 76 78 82 84 84 86 87 86 77 73 77 78 75 71 70 68
39 39 37 41 42 45 44 43 45 46 46 49 49 50 51 54 59 62 64 69 71 75 77 80 83 81 74 63 53 40 27 20 21 27 28 31 33 38
43 45 46 43 45 43 43 44 43 44 44 46 50 52 55 60 64 67 67 69 70 71 72 65 58 49 28 17 13 11 9 9 10 13 13 14 16 20
43 44 45 41 43 44 45 45 47 48 49 51 55 58 62 63 62 61 60 55 52 49 43 30 17 14 11 9 7 8 9 11 14 16 17 17 17 18
44 41 40 41 44 45 48 50 50 50 53 56 60 61 60 54 45 43 42 35 23 16 14 12 10 9 8 9 11 14 16 17 17 16 16 16 20 24
40 40 42 44 47 49 52 54 54 55 55 52 45 40 36 32 25 18 15 14 13 12 10 10 9 10 13 17 17 18 18 19 18 18 20 22 27 30
42 46 47 50 51 54 55 53 46 38 33 25 20 16 15 14 14 14 14 13 12 11 11 13 16 19 20 19 18 21 22 21 20 20 22 24 27 30
49 50 52 54 54 47 37 25 20 17 16 15 15 15 15 15 16 15 14 13 13 13 15 20 21 21 20 20 21 23 24 23 22 24 24 26 27 29
53 54 52 39 28 22 19 18 17 16 16 16 16 16 17 16 16 15 14 14 15 19 22 22 22 22 22 21 22 25 27 26 25 26 27 28 28 30
43 34 28 23 21 20 19 18 18 18 18 18 18 18 17 17 16 15 15 18 23 24 25 25 25 24 25 25 25 29 30 29 27 27 28 29 28 29
29 25 23 22 21 21 21 20 20 19 19 19 19 18 18 18 17 17 21 26 26 27 27 29 30 30 30 31 33 37 38 36 33 29 30 32 32 30
26 24 24 23 23 23 22 21 20 20 20 20 20 20 20 20 20 24 27 28 29 30 33 34 34 37 38 38 38 41 43 44 41 35 34 35 36 35
26 25 25 25 25 25 24 22 21 21 22 23 23 23 24 24 27 29 30 31 32 34 37 39 39 41 43 44 44 47 46 46 45 42 40 42 42 40
28 27 27 27 28 27 25 24 24 25 26 26 26 26 28 30 32 32 33 34 36 39 42 44 45 48 50 51 47 45 44 49 50 48 45 44 43 42
30 30 30 31 30 28 27 27 28 29 30 30 30 30 32 34 35 36 36 36 40 44 47 50 52 54 53 50 48 47 50 50 53 51 48 46 44 42
33 34 36 39 34 31 31 32 32 33 33 34 33 34 35 36 39 40 39 41 44 48 53 56 56 56 53 52 49 51 51 54 54 53 52 50 50 46
37 38 40 39 37 37 38 39 39 38 36 35 35 35 37 39 42 42 43 46 49 51 55 58 60 60 57 55 52 50 54 56 55 56 57 54 53 52
39 39 40 40 41 43 45 45 44 42 40 38 36 36 39 42 43 44 46 49 51 53 57 62 63 61 58 55 51 55 55 61 59 59 63 61 59 57
40 41 43 44 46 47 48 49 48 48 46 42 41 39 39 41 43 44 47 50 53 55 59 63 62 63 63 61 54 55 65 62 63 63 68 68 66 62
44 44 45 47 48 50 51 52 53 53 52 49 48 47 46 47 44 42 44 48 51 54 58 62 62 63 63 63 58 56 67 71 69 68 72 72 69 65
49 49 49 50 50 51 53 56 57 58 57 56 57 56 54 50 48 49 48 47 50 52 55 56 62 67 69 69 65 62 64 74 76 75 77 77 74 67
53 52 52 52 52 53 53 56 59 60 61 62 60 56 54 52 48 52 53 52 52 54 55 57 64 68 71 73 70 69 71 76 78 80 81 84 80 74

GFSNE_prec_cthk_093.txt.gz
RH
42 41 42 45 41 40 44 42 39 49 49 46 51 44 48 49 50 57 56 56 58 61 63 67 69 73 75 75 77 78 79 80 82 82 76 77 78 79
42 43 49 43 38 37 37 40 42 45 46 48 47 50 46 52 53 52 55 61 63 63 65 66 68 69 70 72 72 71 64 55 44 35 30 30 30 32
42 48 45 46 40 40 43 45 47 43 43 46 47 48 48 49 51 54 60 64 63 61 61 63 62 62 59 54 48 34 19 12 9 8 10 18 19 19
40 43 44 46 45 48 48 45 43 43 44 44 46 47 50 55 56 60 62 59 54 51 49 48 46 43 40 21 13 12 9 8 8 9 11 15 18 23
43 44 47 46 48 47 43 44 43 43 48 48 50 52 57 57 57 53 46 43 43 42 40 31 20 13 12 11 10 8 9 10 13 15 16 16 15 16
43 45 48 48 44 42 44 44 45 47 49 52 53 53 50 44 40 37 34 33 27 17 14 13 12 10 10 10 10 13 16 17 16 15 17 18 19 20
47 47 46 46 43 42 44 47 51 52 52 47 41 37 34 31 27 22 17 15 15 14 12 11 11 11 12 14 18 18 18 17 18 19 20 21 21 23
48 48 44 44 45 48 51 53 52 43 36 30 23 19 17 15 16 16 16 15 14 13 12 12 13 15 19 19 18 19 19 18 19 20 23 24 23 20
51 46 46 48 51 53 51 41 29 21 18 17 16 17 16 17 17 16 15 14 13 13 12 15 19 20 20 20 20 21 19 18 20 22 24 27 27 24
48 49 52 53 49 34 26 22 20 19 18 18 18 17 18 17 17 16 15 15 15 16 18 21 22 22 22 23 23 24 25 26 26 27 30 30 30 27
55 54 44 33 28 23 22 21 21 21 20 19 18 18 18 17 18 18 17 17 19 22 24 24 22 23 24 26 27 30 33 35 35 35 35 34 33 30
41 35 31 26 24 23 23 23 23 23 21 20 19 19 20 21 21 19 19 22 26 26 26 25 24 27 29 32 34 35 38 39 40 41 39 36 33 33
35 29 27 26 25 24 24 25 24 23 22 21 21 22 23 23 23 22 25 28 29 29 27 27 28 31 34 37 39 41 43 46 44 42 39 36 36 37
29 29 28 27 27 27 27 26 25 24 23 23 24 26 26 26 27 28 30 31 32 31 30 30 32 34 38 42 44 48 49 45 44 45 41 40 40 40
30 30 29 29 29 30 30 28 27 26 27 28 29 30 29 30 32 33 33 34 34 33 33 35 37 39 42 45 48 51 50 49 49 47 46 44 44 43
32 31 31 32 33 34 36 35 31 31 33 34 34 33 33 34 35 36 37 38 37 37 38 40 42 45 47 49 52 53 55 53 52 50 46 47 48 47
34 35 36 37 38 38 39 37 37 38 39 39 38 37 37 38 38 40 41 43 43 42 44 45 47 48 50 54 55 56 55 54 54 51 48 47 52 52
37 39 39 40 41 41 40 41 43 44 45 44 42 40 40 40 42 45 46 48 49 47 49 50 51 51 53 58 61 62 60 57 58 57 54 48 52 56
41 41 41 41 42 43 44 46 46 49 49 49 48 47 46 44 45 48 50 50 50 50 53 56 58 57 59 60 64 64 62 65 63 61 60 56 52 59
43 44 43 44 45 46 47 49 49 51 54 55 55 55 53 52 52 51 48 46 48 47 49 55 56 56 59 61 60 63 67 69 72 68 63 60 59 59
45 47 46 47 49 51 51 51 50 52 57 57 59 59 58 58 57 55 51 52 53 49 50 51 51 54 54 54 51 52 62 69 74 74 69 64 63 63
49 50 49 50 51 53 52 51 51 53 57 60 61 62 62 62 59 55 54 55 50 48 47 48 46 44 46 53 57 59 62 71 77 77 79 75 71 68
50 52 52 53 54 55 55 55 54 54 56 60 64 67 66 64 57 55 53 48 46 46 45 41 42 47 57 66 69 70 74 76 78 79 82 85 83 77

GFSNE_prec_cthk_096.txt.gz
RH
42 43 44 45 45 45 46 44 43 48 45 40 53 51 47 48 48 50 50 51 53 55 60 62 60 61 63 63 66 63 63 64 63 64 61 53 52 50
46 47 47 49 46 47 47 41 40 43 46 48 51 47 47 46 51 49 50 52 51 57 60 57 58 60 58 58 58 58 57 54 43 31 21 19 21 19
46 52 58 50 46 49 48 49 44 47 47 52 48 47 46 49 50 49 51 53 56 57 56 53 52 50 50 50 48 46 39 21 13 11 12 18 18 19
44 55 69 56 47 49 48 51 48 50 49 46 46 46 48 50 53 54 56 54 53 47 43 43 44 43 39 35 26 13 11 10 9 9 9 10 15 18
52 55 55 57 44 50 52 51 51 46 44 44 47 49 52 53 54 51 47 40 39 39 39 36 34 24 15 12 11 10 9 10 11 14 15 15 15 14
50 53 51 52 51 51 51 49 46 44 45 49 52 53 51 44 39 35 34 32 30 28 21 15 14 13 11 10 10 10 12 16 17 16 16 17 16 17
45 46 48 51 52 53 49 50 43 46 50 53 50 43 38 34 32 28 24 19 16 15 15 14 12 11 11 11 13 16 17 16 17 17 18 17 17 18
49 50 51 52 51 56 54 46 49 53 53 43 38 32 25 21 19 17 16 16 18 15 13 13 12 12 15 18 17 16 17 18 19 20 21 19 17 18
61 58 58 61 58 51 51 54 54 45 33 23 20 18 19 18 18 17 17 16 16 16 14 14 16 20 20 17 17 18 18 19 21 23 25 25 25 25
64 64 65 56 52 53 52 39 30 23 22 21 20 20 20 18 17 17 17 18 17 16 17 20 23 23 20 18 18 19 20 23 25 28 29 30 31 31
66 61 55 54 50 37 31 27 24 23 23 22 22 21 20 18 18 20 21 20 21 21 24 26 25 24 20 20 21 22 24 27 31 34 36 36 37 36
59 57 49 38 33 31 27 25 25 24 24 23 22 21 20 20 22 23 22 22 24 28 28 29 28 24 23 24 25 26 28 30 33 37 40 41 38 37
50 44 37 34 30 28 27 26 26 26 25 23 23 22 23 25 26 25 25 27 29 30 31 32 31 27 28 29 30 31 33 35 38 41 42 42 42 41
42 38 34 31 30 29 28 28 28 27 26 25 25 26 28 29 30 29 30 31 32 33 35 35 36 33 33 34 35 38 39 40 43 44 44 44 45 47
39 34 32 31 31 30 30 30 29 29 32 32 30 32 33 33 33 34 35 35 36 37 39 40 41 41 39 40 42 46 46 49 51 51 53 50 49 49
35 34 34 33 33 33 33 34 35 35 35 36 37 38 38 37 37 38 39 39 40 42 44 45 45 47 47 47 51 53 55 57 60 60 59 59 55 53
36 36 35 35 36 38 39 39 39 40 39 41 42 43 42 41 41 42 42 44 46 48 49 48 49 52 54 52 54 57 59 59 59 63 64 63 63 61
37 37 37 38 40 40 41 42 42 42 45 46 47 49 48 47 47 48 49 49 51 53 53 52 54 54 51 50 52 53 56 58 61 64 65 65 68 68
39 38 38 41 42 43 43 44 45 46 48 50 51 53 54 54 55 55 52 51 53 52 49 50 51 47 47 47 48 50 42 41 46 51 57 60 59 69
41 41 41 43 45 46 46 47 49 50 51 52 53 54 56 58 60 60 59 58 56 50 49 45 43 43 42 39 33 33 45 52 54 56 61 64 66 70
44 45 42 43 45 48 49 50 52 53 53 53 55 56 57 59 64 65 64 62 52 47 46 44 43 41 36 31 33 46 54 54 56 61 66 70 73 76
47 46 44 45 45 50 51 51 52 52 53 54 57 58 60 63 67 70 67 61 48 44 42 43 41 37 34 35 47 55 58 57 62 65 70 74 76 77
47 46 45 45 47 50 54 55 55 55 56 60 59 61 64 68 71 74 69 57 47 42 42 43 42 38 38 43 58 63 62 60 57 61 70 77 75 76

GFSNE_prec_cthk_099.txt.gz
RH
57 58 57 56 54 55 54 49 48 50 48 42 43 39 44 49 52 44 46 47 50 51 52 53 56 58 57 55 56 55 54 55 54 53 51 46 37 36
53 57 55 57 56 63 61 59 52 56 53 45 45 45 49 50 45 46 46 48 48 48 50 51 54 52 52 51 51 48 48 48 48 44 38 26 15 18
48 53 50 53 61 58 73 63 54 55 50 46 49 53 50 47 46 47 49 49 49 50 51 51 47 44 43 44 42 39 39 37 32 18 10 8 9 12
51 54 54 55 59 63 65 68 55 53 50 49 52 51 48 46 49 49 50 51 50 49 47 42 39 38 37 36 34 30 20 13 10 9 7 8 8 12
51 56 53 52 57 67 65 59 55 55 52 54 49 48 48 50 55 54 51 45 40 38 35 33 32 32 28 19 14 12 11 9 8 8 10 13 13 14
48 54 51 56 56 57 58 56 55 56 56 51 51 49 50 56 51 43 37 33 31 31 27 24 18 15 13 12 11 11 10 10 11 14 14 13 14 16
50 52 54 55 61 57 54 54 57 54 53 55 52 52 54 43 38 34 32 28 24 17 16 15 14 13 12 12 12 12 15 15 14 14 15 15 17 18
55 59 60 63 60 60 55 57 56 59 57 51 56 51 41 34 30 26 22 19 18 16 15 15 14 14 13 15 18 19 16 14 15 16 17 18 19 20
57 60 64 65 65 65 61 64 64 63 54 52 46 34 25 22 20 20 19 17 16 17 18 16 16 16 19 21 21 19 16 15 16 17 19 21 22 23
62 64 65 65 65 67 69 68 58 53 40 32 25 23 22 21 21 20 18 17 18 19 19 18 20 22 24 23 22 19 17 17 18 20 22 25 27 28
63 61 61 62 63 68 67 48 35 30 28 25 25 24 23 22 21 19 19 20 22 22 22 24 24 25 26 26 25 22 20 21 23 24 26 28 30 32
62 61 63 63 64 49 36 34 32 28 27 26 25 25 23 22 21 21 22 24 24 27 26 28 27 28 28 29 30 29 27 26 27 29 31 34 36 37
65 64 62 49 39 37 36 33 29 29 28 27 26 25 24 23 24 26 27 27 27 30 30 30 30 32 33 34 34 34 35 35 35 38 40 41 43 44
64 52 43 41 42 39 34 31 31 30 29 29 27 27 29 31 30 31 31 31 32 34 34 34 36 38 39 40 39 40 42 43 43 43 44 46 48 50
54 45 45 43 39 35 34 33 32 31 31 30 30 33 34 35 35 35 35 36 38 38 38 40 41 44 44 43 45 47 47 47 47 47 50 53 55 56
49 45 44 40 38 38 36 34 34 34 34 35 36 38 40 39 39 39 39 42 43 43 44 44 47 49 47 46 47 48 47 47 49 49 49 52 55 58
53 48 43 41 40 38 37 37 39 40 41 42 42 43 43 44 44 45 46 48 49 49 48 50 52 48 44 44 45 44 42 40 42 39 36 40 44 45
49 45 43 42 40 39 39 41 43 44 45 45 45 46 48 49 52 53 53 54 55 54 54 55 53 42 40 39 38 36 35 31 28 34 45 49 43 45
49 45 43 41 40 41 42 44 46 47 47 47 48 50 51 53 54 55 57 59 60 59 57 55 47 37 36 34 34 34 28 28 32 46 53 54 48 47
47 45 43 41 42 43 43 45 47 48 48 49 52 54 56 56 57 57 58 62 66 65 61 56 43 36 35 34 33 31 29 30 43 55 59 60 55 52
48 46 45 43 44 44 44 45 47 47 49 50 52 55 57 58 59 60 62 65 69 68 65 55 42 37 36 34 33 30 32 37 52 60 61 61 57 50
47 45 46 46 47 47 47 46 45 46 50 52 54 56 57 59 63 64 67 70 73 72 66 54 41 36 36 35 34 31 31 38 53 62 65 66 66 53
49 47 47 48 48 48 49 48 46 45 48 54 58 59 62 64 67 67 73 75 74 73 64 51 40 40 39 38 36 33 33 36 49 63 67 70 70 69

GFSNE_prec_cthk_105.txt.gz
RH
89 86 86 81 79 72 71 71 71 73 70 67 70 75 64 58 55 54 55 55 55 53 51 50 52 57 55 54 53 57 52 48 46 43 42 36 37 36
79 77 74 66 64 64 65 71 71 75 70 74 66 75 66 68 61 55 56 55 52 50 50 53 55 59 56 51 51 47 43 40 39 40 39 33 32 27
81 78 70 64 61 63 64 60 63 66 66 76 72 78 69 67 60 59 57 54 51 51 56 56 61 59 53 51 43 38 35 35 35 34 31 25 15 11
71 67 63 60 58 59 58 59 65 64 69 65 76 69 67 68 61 57 55 53 53 61 58 63 56 50 44 41 36 34 34 33 29 18 12 11 11 10
53 52 52 47 49 48 47 49 55 63 60 64 72 71 66 66 60 55 55 55 63 62 57 51 43 38 35 33 32 31 25 16 13 12 12 12 14 15
41 39 39 38 41 42 44 45 49 53 62 63 74 73 64 64 62 56 59 61 55 49 44 36 34 33 30 23 17 16 14 13 13 14 15 17 16 15
39 38 37 38 38 40 42 49 56 51 58 69 70 70 70 69 62 59 65 52 46 42 36 29 24 19 16 15 16 15 14 15 17 19 19 19 18 17
39 40 42 41 43 46 47 49 54 59 62 68 70 73 73 66 67 69 54 48 43 34 25 22 19 16 16 17 17 16 18 21 22 22 22 23 22 21
47 46 47 47 49 50 49 52 53 60 62 65 71 73 69 66 68 60 45 40 33 28 23 20 18 18 19 19 19 21 23 23 23 24 25 25 24 23
52 52 52 52 52 53 55 57 57 64 64 69 68 66 70 70 52 38 34 29 30 25 22 20 19 21 22 23 24 25 26 25 26 27 27 24 24 25
58 58 60 60 60 59 60 59 64 67 71 66 64 67 61 42 34 35 31 30 26 23 22 22 23 24 26 26 27 28 28 29 30 31 26 26 26 29
62 62 64 63 63 63 65 68 70 72 71 64 54 41 35 36 36 33 31 27 24 24 26 27 28 29 30 30 31 31 32 33 35 32 27 27 29 31
68 67 68 69 70 70 69 69 66 59 47 37 35 39 38 38 35 34 29 26 27 31 32 32 32 33 34 35 35 36 37 39 40 31 29 31 33 33
77 75 74 75 74 70 67 59 49 45 40 40 41 40 39 38 36 32 29 30 34 35 36 36 37 38 39 40 42 42 44 46 43 31 32 31 30 30
84 80 77 76 70 64 52 48 43 42 41 42 43 42 41 39 34 33 32 35 39 40 39 41 43 45 47 47 48 48 50 50 41 31 29 29 28 25
87 86 75 65 59 55 50 48 46 45 48 48 45 44 43 39 37 37 38 41 43 42 45 47 51 53 54 55 56 55 55 53 40 29 27 26 21 18
89 84 79 70 58 52 50 50 49 49 48 46 49 48 45 43 43 44 46 47 48 48 50 52 56 58 60 60 59 58 56 53 37 26 25 23 22 21
88 88 79 71 63 56 54 53 48 48 49 54 52 50 49 49 49 49 49 49 49 50 51 54 58 60 63 61 62 61 58 55 34 26 25 24 22 24
89 86 78 70 71 66 58 55 52 55 56 53 51 52 52 52 52 52 51 51 52 55 57 59 61 66 70 70 66 64 62 58 34 29 27 26 25 25
94 91 84 69 56 57 59 50 50 54 51 50 51 52 53 53 54 54 55 55 56 58 60 61 65 71 74 75 74 68 64 61 36 31 28 27 27 26
97 97 91 73 65 59 49 50 54 50 50 50 51 50 50 51 53 54 54 56 59 62 64 66 69 73 77 78 78 74 67 62 38 33 31 29 27 26
97 97 96 75 65 60 61 58 54 50 49 50 49 48 48 50 51 51 51 52 53 60 71 74 72 73 79 80 79 77 71 65 42 36 34 32 30 29
97 97 97 95 79 72 64 58 58 59 56 50 47 47 49 50 53 54 53 50 51 66 78 78 72 74 82 81 80 79 74 69 46 36 33 34 33 33

GFSNE_prec_cthk_108.txt.gz
RH
97 98 95 94 92 91 93 93 92 82 73 73 79 76 79 77 76 76 69 65 58 55 57 60 56 51 51 59 63 59 66 58 53 49 43 41 37 34
85 90 89 86 87 90 85 79 73 69 71 71 73 81 74 74 78 79 65 65 58 57 55 53 56 51 61 61 62 60 53 49 44 41 38 37 34 30
91 90 86 86 83 80 76 73 69 69 70 67 68 68 72 75 78 79 68 66 62 58 53 53 55 61 58 63 56 53 47 40 36 35 34 32 26 17
85 86 86 83 77 74 71 68 66 70 68 69 71 68 73 68 78 73 69 66 61 56 55 58 64 59 59 55 47 43 39 35 35 34 25 14 12 12
67 65 64 61 58 55 55 55 58 57 62 59 55 60 62 65 75 75 70 66 61 56 60 63 59 53 49 41 38 36 34 32 28 17 13 13 13 13
44 44 44 42 41 40 39 40 42 46 50 55 56 63 59 71 76 76 75 71 60 60 64 55 43 43 38 37 35 28 19 16 15 14 15 15 17 19
39 39 39 40 40 41 42 44 46 48 49 49 56 60 63 67 78 74 75 72 65 68 54 42 41 34 30 24 18 16 16 16 15 16 18 20 21 21
39 40 41 40 41 43 46 48 51 51 53 59 58 62 66 71 72 76 75 69 67 55 46 43 35 27 23 18 16 16 17 17 18 22 23 23 23 24
43 43 45 47 48 51 51 53 55 60 60 60 61 65 63 68 73 77 70 72 62 53 42 32 29 25 20 18 18 18 20 22 24 24 25 26 26 24
49 49 50 50 51 53 55 59 61 62 62 62 63 66 69 72 76 72 72 64 48 41 35 33 28 22 20 20 20 22 24 26 26 27 27 29 30 25
55 55 56 59 60 60 61 63 63 63 63 64 67 70 73 76 72 69 55 42 39 37 35 30 25 23 23 24 26 27 28 28 29 29 31 33 32 25
63 61 63 64 63 62 66 67 66 65 67 70 73 75 78 73 58 42 36 37 39 38 32 27 26 27 29 29 30 31 32 32 33 34 37 39 33 25
69 67 67 71 72 69 69 72 71 71 71 68 69 65 53 43 38 38 39 42 39 34 29 28 32 33 34 34 34 35 36 37 38 40 43 45 35 27
76 74 74 78 80 77 74 75 75 72 63 52 46 44 45 41 41 41 43 41 37 33 31 35 38 38 38 38 39 40 42 43 45 47 50 49 37 26
81 81 82 82 85 81 73 67 63 54 47 44 45 44 43 44 44 44 44 42 37 35 35 39 41 41 42 43 46 48 49 51 52 53 54 51 38 26
85 85 87 86 86 78 70 61 51 50 47 47 45 43 44 47 50 49 45 41 41 39 40 44 46 46 48 51 54 54 56 56 56 57 57 53 38 23
88 89 91 88 85 77 67 60 53 48 48 43 46 57 57 53 53 50 46 46 45 45 48 50 52 52 54 57 59 59 60 59 60 60 59 55 40 24
89 90 90 92 86 77 67 57 54 52 51 53 61 54 54 58 56 53 51 51 51 52 53 53 52 53 57 61 64 64 66 66 66 65 63 60 42 27
91 93 93 93 91 79 68 62 57 59 63 61 57 55 62 59 57 56 55 55 53 54 54 54 55 59 64 67 71 72 71 71 71 68 67 62 45 27
96 97 97 94 87 75 77 76 69 60 54 50 54 61 58 58 57 56 57 57 57 57 57 57 57 59 64 70 74 76 75 74 73 72 70 65 51 29
96 97 97 97 97 83 67 60 76 73 64 60 65 56 55 55 56 56 57 57 56 57 57 57 61 65 72 77 78 80 80 76 77 76 73 69 56 33
91 95 97 96 96 92 75 64 66 63 57 58 59 55 54 53 55 53 52 52 53 53 53 54 56 60 72 78 78 80 83 81 75 75 74 72 62 43
90 92 96 97 96 97 90 75 70 60 57 61 60 56 56 58 55 51 49 50 55 60 61 59 60 68 72 78 79 80 84 81 79 76 73 72 67 50

GFSNE_prec_cthk_111.txt.gz
RH
85 90 93 97 99 98 98 97 97 95 90 87 86 77 79 82 81 82 83 78 75 78 73 67 64 64 63 58 54 55 63 61 65 62 53 43 39 36
82 85 89 94 96 95 96 96 96 96 94 89 82 79 78 78 76 83 79 80 79 78 68 63 62 58 58 56 59 65 72 67 61 50 43 36 34 33
81 87 92 91 92 94 94 95 93 89 82 80 75 80 81 79 81 80 82 77 81 75 66 63 60 56 56 58 64 66 63 60 50 41 35 32 30 25
86 92 95 92 86 79 82 79 78 75 76 75 78 76 66 72 81 72 74 72 82 74 66 64 58 56 56 66 63 62 57 47 43 37 34 30 19 13
78 67 67 69 67 64 58 58 60 59 61 63 59 58 60 59 64 67 68 69 72 80 71 66 59 61 62 60 55 50 42 39 36 32 27 16 13 14
58 55 50 51 47 42 40 41 45 46 47 47 49 53 53 59 62 66 67 78 72 75 75 64 64 61 52 49 47 41 40 32 23 17 15 14 15 17
48 48 44 40 38 38 38 41 42 43 46 51 52 55 54 59 64 69 67 63 75 74 73 65 63 53 43 41 38 34 25 18 16 16 15 16 19 21
40 39 40 40 41 41 43 44 45 48 51 53 53 61 66 63 64 65 67 69 77 78 70 70 56 49 40 36 29 24 18 17 16 16 17 21 23 23
43 43 44 44 45 45 48 49 49 51 54 59 62 64 66 68 70 67 65 69 76 76 73 63 53 44 39 30 27 20 18 18 18 20 23 24 25 26
45 46 48 49 49 50 53 54 57 60 60 62 64 66 68 68 67 66 69 74 76 78 71 54 43 37 33 33 24 21 20 21 24 25 25 26 27 29
48 49 51 53 54 56 60 61 62 62 61 62 66 68 68 68 68 70 74 76 81 70 52 46 38 36 36 28 24 22 23 26 27 28 28 30 31 33
51 55 59 63 63 64 65 65 65 65 63 66 70 70 70 70 74 76 78 81 62 43 42 38 41 41 31 27 26 27 29 30 30 31 33 34 36 38
58 63 66 70 69 68 70 70 72 72 70 71 72 70 71 74 73 70 62 51 44 42 39 42 44 33 29 31 31 33 33 33 34 36 38 40 42 45
68 70 72 73 73 74 76 76 78 79 74 68 67 61 60 54 49 45 45 47 44 40 47 46 38 34 32 36 37 37 37 38 41 43 45 47 49 51
73 73 76 77 78 79 82 83 77 73 63 61 54 50 46 44 45 46 46 46 44 51 49 42 37 37 40 42 42 41 42 45 50 52 53 55 56 56
73 76 79 80 83 84 87 84 76 67 60 56 54 49 47 46 47 45 45 50 52 53 48 43 40 39 43 46 46 46 49 54 57 58 59 60 60 60
73 79 81 82 84 87 88 83 74 68 60 56 51 51 49 48 48 49 57 56 59 55 49 46 45 46 48 50 51 51 54 55 58 62 64 64 63 62
73 78 83 85 87 88 88 78 73 66 63 56 55 52 52 56 59 59 61 64 59 56 54 53 52 53 54 54 53 53 55 60 66 68 69 71 69 63
75 79 82 86 90 91 92 83 74 66 63 58 55 55 62 67 63 65 71 65 62 59 58 57 55 54 53 53 53 55 65 71 74 75 76 76 74 69
80 82 85 88 90 93 94 90 82 71 67 61 63 68 72 62 60 71 68 65 63 61 60 59 58 56 56 56 55 61 76 76 78 80 79 78 77 76
75 80 83 89 92 91 96 95 81 78 77 78 72 60 54 56 67 68 64 62 61 62 62 62 59 59 58 57 60 67 75 76 77 80 83 82 80 78
73 76 80 82 88 90 95 97 96 76 69 76 85 70 57 61 62 56 57 59 60 59 58 57 56 58 58 60 61 71 74 70 78 80 83 83 82 81
73 76 78 82 84 88 92 97 97 94 79 68 77 74 69 72 68 62 61 56 58 58 57 53 50 54 62 67 66 75 73 73 81 80 84 80 82 83

GFSNE_prec_cthk_114.txt.gz
RH
61 68 79 76 83 94 93 97 97 98 97 95 93 93 92 92 90 85 84 80 86 84 82 75 77 71 63 64 60 57 53 58 60 63 63 63 51 42
66 67 69 75 80 85 94 95 96 97 96 98 95 93 90 84 87 87 84 85 82 83 86 75 78 70 62 57 56 55 57 64 68 69 64 53 42 35
65 68 69 75 81 86 91 93 92 94 93 89 88 87 87 88 83 87 84 85 81 87 81 69 75 71 63 56 59 60 65 70 67 69 52 43 34 30
72 73 74 75 78 81 81 80 77 75 73 72 76 74 71 67 73 63 66 70 71 64 72 68 69 73 63 60 63 61 67 66 67 54 48 37 33 26
74 63 59 61 60 60 54 53 53 53 55 55 51 50 49 52 53 58 59 61 62 64 72 67 67 73 63 64 67 66 65 59 54 45 40 33 27 15
49 45 43 46 47 46 43 41 40 39 40 42 43 50 47 49 54 59 62 67 66 67 75 67 69 76 65 63 61 56 55 54 45 42 29 20 15 15
46 47 46 47 45 40 37 37 36 38 39 42 46 49 51 53 57 58 63 65 69 70 73 64 75 78 69 59 54 46 45 46 40 27 17 16 15 16
40 39 39 39 39 41 40 39 39 40 43 47 49 50 54 58 62 63 68 67 67 72 67 71 74 77 71 56 50 41 32 30 28 19 16 16 17 20
43 42 42 41 41 42 41 41 43 45 47 50 53 58 59 62 64 65 66 71 73 73 71 72 78 76 68 55 45 36 35 32 24 18 17 18 22 24
44 43 42 40 43 45 44 46 49 50 52 57 59 62 63 64 67 71 74 73 74 73 73 77 78 77 58 44 37 40 37 29 22 20 21 24 25 25
44 43 43 43 45 49 49 52 56 58 60 61 62 64 64 65 69 73 75 75 73 75 79 80 82 65 45 43 41 40 37 27 23 24 26 26 27 28
47 48 49 50 53 58 59 58 60 62 64 65 66 67 67 67 71 74 74 76 79 81 84 81 58 45 42 44 41 47 32 27 27 29 29 29 30 31
54 52 54 56 60 62 63 62 63 65 69 70 69 70 69 69 71 75 77 80 83 82 66 48 45 44 46 47 51 37 32 31 31 32 32 33 35 36
59 60 61 63 64 63 64 64 66 71 74 77 74 68 64 58 62 62 62 62 56 49 45 45 46 45 51 52 42 36 35 36 37 37 37 39 41 44
63 64 66 65 63 63 66 68 70 72 73 72 65 62 57 51 51 52 49 46 45 43 54 50 47 56 54 44 39 40 41 41 42 42 44 47 49 52
66 70 71 68 66 66 68 71 73 70 70 68 66 60 54 49 49 49 48 47 48 49 48 51 57 59 51 47 44 45 46 47 48 50 52 55 56 58
74 76 75 72 69 68 70 71 71 70 66 70 67 63 57 52 52 50 47 48 48 48 52 59 64 55 50 48 47 49 51 54 54 55 56 58 58 62
76 77 73 72 72 72 74 75 76 72 69 69 66 65 59 55 54 51 50 52 55 59 65 68 59 57 55 55 55 55 56 55 54 55 59 67 69 68
73 73 72 73 74 77 79 80 82 79 72 72 69 65 60 58 55 58 63 62 63 69 72 65 63 64 64 61 58 56 56 55 55 61 72 77 77 70
65 66 67 68 70 73 77 80 83 88 79 75 75 67 65 58 64 67 71 65 73 78 69 68 67 65 63 61 61 58 56 56 61 69 73 75 78 79
61 64 66 68 71 73 74 76 78 85 87 85 84 77 70 64 64 71 70 63 76 75 72 72 67 67 66 66 65 61 58 57 60 71 75 75 78 82
62 65 66 70 71 74 76 77 79 82 86 89 81 84 92 89 82 60 59 63 75 70 69 68 65 65 66 67 64 61 58 61 67 71 73 75 76 81
68 70 72 74 75 75 76 78 78 82 85 88 90 83 73 80 88 77 61 65 64 58 59 60 60 61 60 61 60 57 60 68 69 72 76 72 74 85

GFSNE_prec_cthk_117.txt.gz
RH
60 59 59 65 63 77 76 77 78 86 84 91 91 93 92 92 92 91 90 86 94 89 89 90 87 91 83 75 68 58 56 59 62 63 64 66 60 61
54 60 64 69 70 72 74 78 78 81 81 88 93 87 88 89 89 86 84 86 90 83 82 80 82 84 80 69 71 62 56 55 58 61 65 65 64 56
60 65 66 67 65 66 69 73 75 79 85 88 81 77 79 81 79 83 79 77 79 73 68 70 69 70 66 66 72 63 62 63 64 73 70 69 62 45
69 70 67 66 67 66 64 60 56 57 57 56 52 53 55 56 54 52 52 54 57 56 60 65 64 65 70 65 71 64 64 63 68 68 66 67 52 43
67 66 63 56 50 46 43 40 39 41 43 41 41 42 40 40 41 45 49 51 54 59 60 62 67 64 71 67 70 68 67 67 67 63 63 56 49 39
51 50 48 45 42 41 39 39 36 33 33 33 36 38 40 44 47 47 50 54 57 58 64 64 68 69 75 67 73 73 68 66 60 56 53 44 43 27
43 42 41 39 37 36 34 35 34 33 36 35 36 40 45 48 49 56 58 59 61 62 65 69 75 72 73 69 76 75 60 57 54 50 48 40 27 16
38 38 38 39 38 38 36 34 32 32 35 36 40 44 46 50 55 57 60 64 68 70 70 73 74 76 73 74 78 73 54 50 48 42 37 33 20 16
41 41 41 41 38 36 35 36 34 35 38 40 44 49 52 56 59 63 65 69 70 71 70 74 75 75 76 78 79 71 51 45 37 32 32 29 19 17
44 44 43 40 39 38 38 42 39 40 45 46 47 51 58 62 63 68 72 71 71 74 76 76 78 77 79 82 80 63 44 39 38 36 38 25 20 21
48 46 44 45 45 41 43 47 44 49 51 50 51 55 59 62 64 70 74 73 75 78 79 77 80 82 83 84 71 45 43 38 41 45 31 26 24 25
49 49 48 49 51 50 51 52 54 54 53 53 55 58 63 66 67 70 72 73 74 77 76 78 84 86 87 71 49 43 47 43 50 41 31 30 27 27
51 49 52 53 53 54 53 55 56 55 55 57 58 61 65 67 69 72 73 74 77 78 80 82 83 77 60 47 42 46 46 51 50 37 35 32 30 30
58 58 58 58 58 56 55 54 55 57 57 58 60 62 65 68 67 64 64 66 74 77 74 73 58 48 48 49 51 55 59 52 42 39 37 36 35 35
63 64 63 61 63 60 59 57 58 59 58 57 55 56 57 60 62 57 52 54 55 54 51 48 45 45 46 48 54 65 52 44 43 42 42 41 40 41
69 68 65 65 64 63 61 60 61 62 60 56 54 54 57 58 60 56 51 50 49 49 47 44 56 59 52 57 61 56 49 48 47 47 46 47 48 51
71 69 68 68 67 66 63 62 64 65 62 60 57 57 57 57 61 58 54 52 52 47 46 50 50 51 58 65 60 55 52 52 52 52 53 56 57 57
69 70 70 69 68 67 65 63 63 66 67 66 63 60 58 58 61 58 57 55 51 49 50 51 54 61 66 67 59 57 56 56 58 61 62 61 60 61
71 69 67 66 65 65 63 61 61 63 65 66 66 62 63 63 63 57 57 58 57 56 58 61 66 68 69 67 64 64 65 64 64 63 61 63 65 67
67 65 62 63 62 60 60 62 64 66 67 70 69 63 61 67 63 65 63 61 64 65 70 75 75 71 70 70 69 69 67 64 64 63 60 66 67 66
66 61 61 59 61 61 62 65 66 69 71 72 75 74 67 69 70 70 64 63 72 76 73 79 75 73 72 70 71 70 68 66 65 64 61 62 65 73
65 61 63 62 63 63 64 67 70 71 74 75 76 79 78 71 79 87 87 81 69 72 71 78 79 76 76 75 74 73 70 69 68 66 64 63 72 76
64 64 64 65 67 67 69 71 73 76 77 78 79 81 80 81 73 71 77 90 87 64 61 68 72 69 68 67 65 66 66 65 64 63 63 69 76 78

GFSNE_prec_cthk_120.txt.gz
RH
91 95 69 63 57 60 64 68 69 71 70 69 74 79 82 82 83 82 77 77 76 78 76 86 83 83 76 79 86 77 67 63 59 63 65 65 65 66
93 72 59 54 60 63 66 66 68 68 70 70 72 76 79 81 80 78 72 73 72 70 71 74 70 70 66 66 64 65 60 63 60 56 61 63 68 65
63 58 56 60 66 67 66 64 62 62 63 62 60 59 58 57 54 52 52 52 53 53 55 56 62 59 62 65 65 63 63 65 63 62 62 65 69 67
61 63 65 68 69 63 56 57 50 44 41 38 37 36 37 35 35 36 39 41 44 47 53 55 59 59 66 66 70 72 69 70 67 69 71 75 74 70
66 66 67 68 60 55 48 43 38 37 36 34 31 30 30 31 36 37 39 40 43 49 57 57 65 68 66 73 70 71 72 70 69 73 74 71 69 69
62 61 55 49 44 42 41 39 35 33 33 31 31 29 29 32 35 40 43 46 50 53 57 62 65 69 72 74 78 76 76 75 71 75 75 71 64 62
59 54 50 44 41 39 37 35 35 35 32 33 32 31 32 34 39 44 45 50 54 57 61 64 67 74 75 80 79 77 78 79 69 69 68 63 55 53
47 44 43 39 38 37 36 36 35 31 31 30 32 32 35 38 45 48 50 53 56 61 66 69 73 75 77 79 80 80 79 81 71 60 57 58 50 40
45 44 41 40 39 38 37 37 34 34 35 35 34 37 41 44 48 51 55 56 59 65 69 73 75 75 78 77 79 79 79 82 71 54 46 43 40 33
46 45 43 42 42 40 39 38 40 39 38 37 40 42 45 46 49 54 58 61 65 68 73 73 73 77 81 80 81 83 84 86 71 49 38 40 34 38
47 46 45 44 42 43 45 45 45 45 44 44 47 46 47 49 53 56 59 64 69 72 75 75 75 79 78 79 82 84 87 84 54 40 38 41 36 43
51 49 48 47 46 47 49 50 48 49 48 50 51 48 49 52 55 57 62 66 69 73 74 74 76 78 78 80 84 86 85 60 44 42 48 53 51 39
54 51 50 51 51 53 53 54 51 51 52 52 53 52 52 52 54 57 63 70 74 75 75 76 78 79 80 84 79 62 54 47 43 53 48 56 43 38
57 57 56 57 59 58 57 60 55 55 57 57 55 54 52 51 54 54 56 60 68 76 79 81 84 85 78 68 51 46 48 48 56 51 59 48 41 38
62 62 62 65 64 63 63 61 60 60 61 60 55 52 48 49 49 49 49 50 52 56 61 65 67 66 58 51 46 47 52 60 68 66 51 44 42 41
68 67 67 67 67 69 70 67 62 63 63 62 55 52 51 49 50 48 47 48 50 51 50 51 51 49 47 47 47 47 53 64 65 52 48 46 45 45
69 67 70 71 71 73 73 69 67 64 63 62 58 53 50 49 51 49 49 52 50 51 52 50 48 46 53 59 56 57 61 62 58 53 50 49 50 51
79 77 74 72 73 70 74 70 68 65 66 63 62 57 52 48 47 48 49 52 51 51 54 54 49 47 51 51 55 62 67 65 59 56 53 54 57 59
82 78 77 75 73 69 65 65 65 65 64 63 64 64 58 51 49 49 47 48 51 53 56 60 58 57 59 60 63 69 68 65 62 60 60 62 65 66
82 76 73 72 70 66 63 63 64 64 63 64 66 68 67 62 56 53 52 48 53 56 58 63 62 67 68 73 75 74 74 71 71 70 69 67 66 70
73 72 72 71 67 64 64 65 64 64 66 67 68 68 70 71 68 62 59 58 57 56 61 66 67 77 82 79 80 79 77 75 72 69 69 68 69 71
70 68 67 68 67 65 65 65 65 64 66 68 70 73 75 76 78 76 69 72 75 74 65 59 71 78 88 86 80 79 75 74 73 74 71 69 71 71
68 68 68 67 68 66 66 68 72 74 75 75 77 77 78 78 79 82 82 73 70 72 84 82 68 71 71 78 80 83 84 81 76 74 74 75 75 73

GFSNE_prec_cthk_123.txt.gz
RH
83 86 87 87 90 80 64 58 62 64 63 62 61 60 63 63 65 65 62 59 60 61 57 58 61 62 64 65 67 66 63 63 58 63 67 68 73 73
86 88 91 92 81 71 58 59 62 65 62 58 60 60 59 58 57 58 57 56 56 54 52 52 54 54 55 61 60 59 64 63 62 64 66 64 68 73
89 88 86 77 71 62 62 64 63 59 57 58 52 44 41 40 40 40 40 38 40 42 44 46 48 49 54 54 62 58 64 63 64 71 68 66 74 75
90 86 80 79 67 63 66 65 56 54 50 39 34 34 33 31 29 29 28 31 34 38 42 46 50 55 56 60 59 66 71 73 70 74 72 70 78 81
83 75 71 65 64 67 62 57 51 43 36 35 34 32 30 28 27 27 28 31 35 38 42 44 49 57 59 64 71 75 68 76 73 77 76 71 79 84
69 66 66 64 59 52 48 43 40 39 38 34 34 32 29 28 28 30 30 34 39 44 46 52 55 57 63 69 73 74 76 78 79 79 78 73 79 81
63 62 61 56 51 49 45 43 40 36 35 34 33 31 29 28 30 35 37 39 39 45 51 55 56 63 64 71 79 80 80 79 79 79 81 73 77 80
63 56 49 46 45 42 39 38 36 36 35 35 32 30 32 33 33 40 43 42 44 48 51 58 62 66 71 71 80 80 81 81 80 80 82 72 67 62
52 47 42 41 41 40 39 39 38 37 36 36 36 37 35 34 37 40 43 44 48 53 55 60 67 69 75 80 80 81 83 83 82 79 83 74 59 56
43 42 43 42 42 42 43 41 39 39 39 40 41 41 39 40 41 41 40 43 49 55 58 63 69 74 80 80 80 80 82 82 81 84 86 74 53 41
46 46 45 45 47 47 45 44 42 41 43 44 46 47 49 47 44 43 44 45 50 54 60 66 70 72 81 78 80 80 81 80 82 86 85 63 44 40
51 50 50 51 52 52 50 47 46 46 47 47 49 50 49 49 46 46 47 51 53 55 60 67 73 75 79 79 81 81 81 82 86 86 69 48 46 40
57 57 59 59 57 53 51 50 49 51 54 52 49 50 52 50 48 49 47 49 50 58 65 71 76 80 79 79 80 77 76 78 81 71 49 47 44 48
65 66 64 62 59 57 57 54 57 58 55 55 53 53 50 48 46 47 45 46 46 46 52 68 81 84 83 85 82 80 71 57 49 51 50 53 53 57
72 67 65 63 62 60 59 63 63 61 59 60 58 55 51 48 48 46 42 42 41 40 39 42 51 65 72 74 74 67 54 47 47 51 53 54 59 64
72 72 73 69 65 60 62 68 68 66 68 67 64 60 50 45 47 43 40 40 40 39 41 42 45 49 53 55 51 49 48 47 50 59 64 68 69 56
81 77 74 71 70 68 65 69 73 75 74 71 65 62 55 51 48 43 41 41 41 39 40 40 44 47 50 52 49 49 47 46 50 61 67 59 55 52
83 83 82 80 80 78 77 79 74 71 74 70 66 63 58 56 52 45 43 43 43 42 42 41 44 48 50 50 49 53 57 62 63 66 69 61 55 54
88 87 88 89 83 84 83 79 72 73 67 65 66 62 60 60 59 53 50 46 45 45 45 43 43 49 55 54 52 53 57 59 63 69 68 64 58 56
92 92 90 86 86 85 81 77 74 68 65 64 64 63 63 62 62 64 59 51 50 51 49 49 46 48 56 65 68 69 69 69 72 73 70 68 65 64
91 91 86 84 84 81 78 77 73 68 65 64 64 64 65 64 65 67 69 68 62 60 60 56 53 54 56 66 81 80 78 80 80 77 76 75 75 73
85 84 85 83 83 81 79 76 71 67 66 64 64 65 67 71 73 75 76 76 74 69 71 75 74 63 60 68 76 94 91 80 79 78 79 77 75 74
89 88 86 84 82 75 73 72 72 70 69 67 71 76 77 75 73 75 78 80 83 85 78 75 76 82 82 71 69 72 90 90 89 88 81 76 79 79

GFSNE_prec_cthk_126.txt.gz
RH
60 64 68 73 77 81 81 76 71 62 53 57 60 60 57 56 56 56 54 50 50 49 48 47 48 50 52 54 53 53 57 56 58 57 59 63 67 70
64 72 76 79 82 83 81 79 70 65 56 57 57 56 57 51 46 43 43 40 43 45 43 42 46 45 47 50 51 53 56 57 64 61 63 63 67 72
71 74 76 74 79 83 76 74 65 58 61 58 57 53 42 34 32 31 30 29 29 29 34 33 35 39 46 49 50 56 58 65 69 70 69 70 72 69
78 83 83 82 79 87 77 72 67 60 56 52 46 39 32 31 31 30 28 27 26 27 28 30 35 39 43 48 54 55 60 63 69 73 75 75 74 76
82 87 90 87 82 82 78 71 56 52 48 44 38 34 33 32 31 29 26 25 25 27 31 34 39 44 47 52 55 59 65 69 76 77 79 81 78 79
92 91 89 84 75 74 64 54 49 43 41 38 36 35 33 30 30 28 26 25 26 29 34 39 41 44 50 55 60 63 66 72 75 78 78 79 81 82
84 83 82 78 72 66 57 51 46 43 40 37 36 33 32 32 30 30 29 30 31 36 38 40 43 48 51 52 62 63 66 77 80 79 81 82 82 82
83 80 74 71 68 54 51 49 44 40 37 36 35 34 34 34 33 33 32 32 34 38 41 42 46 52 56 58 64 66 70 76 76 78 82 83 80 81
74 69 67 67 55 51 47 43 41 39 37 37 36 36 37 37 37 36 35 36 37 40 42 42 46 50 56 63 65 68 77 80 77 78 82 82 82 88
64 65 62 54 50 47 45 44 42 42 42 42 40 39 39 39 39 40 40 38 39 41 43 43 47 51 57 63 66 70 79 81 79 80 81 81 84 86
65 59 55 52 49 48 47 46 46 46 45 45 44 44 43 42 44 44 41 40 41 44 44 46 47 53 56 64 69 73 79 80 79 80 79 83 88 87
64 64 62 61 57 53 51 51 51 51 50 49 47 47 44 44 46 47 44 46 45 44 47 52 53 54 56 62 70 76 80 81 83 80 79 85 86 75
70 70 68 67 60 57 56 55 56 55 55 54 52 50 48 49 49 49 48 46 43 41 45 48 55 59 62 65 69 76 77 77 80 82 83 87 84 59
83 80 75 71 68 65 63 61 61 59 60 58 58 56 56 55 53 48 46 43 39 38 36 34 32 40 54 64 72 78 80 78 77 71 64 58 53 49
80 86 85 80 72 70 69 68 65 62 63 61 61 62 63 62 57 52 45 40 38 37 36 32 30 31 36 38 51 58 64 66 66 54 49 51 53 57
81 81 80 79 77 76 73 70 66 68 69 68 69 69 69 68 67 60 47 45 39 38 35 34 32 32 33 33 38 43 48 53 51 49 46 50 59 63
85 85 84 83 83 80 76 76 76 75 72 72 72 73 74 77 72 62 53 48 42 39 38 36 34 34 36 34 35 40 44 48 46 46 48 54 67 67
87 87 87 86 86 85 86 86 84 80 78 81 86 79 79 76 68 65 60 53 44 42 40 41 37 36 38 36 39 40 41 49 54 55 57 56 65 67
90 94 95 94 94 95 94 91 89 87 86 86 84 79 79 75 67 65 64 60 51 43 42 44 39 38 40 41 41 42 44 46 51 55 62 69 69 71
96 98 97 97 97 97 95 93 92 90 89 85 80 75 75 72 68 66 63 62 60 54 49 48 48 48 47 48 47 45 52 58 64 66 67 69 72 71
98 98 98 98 98 96 96 93 90 87 87 84 83 80 75 70 66 64 64 64 65 65 65 60 55 56 53 50 52 52 59 67 72 80 82 82 81 77
98 98 98 97 95 93 89 90 91 86 85 85 83 80 75 69 65 64 66 69 73 74 73 70 64 65 69 70 64 59 63 73 84 80 84 86 84 83
99 98 98 97 95 93 90 90 87 87 85 84 80 78 72 69 69 70 76 77 73 72 74 75 75 72 70 71 74 80 76 67 69 80 90 89 91 87